Time,TemperatureF,DewpointF,PressureIn,WindDirection,WindDirectionDegrees,WindSpeedMPH,WindSpeedGustMPH,Humidity,HourlyPrecipIn,Conditions,Clouds,dailyrainin,SoftwareType,DateUTC
2013-04-19 00:01:00,48.1,6.0,30.07,West,270,3.4,7.6,18,0.00,,,0.00,WUHU216HW,2013-04-19 07:01:00,
2013-04-19 00:02:00,47.9,5.8,30.07,West,270,2.9,7.6,18,0.00,,,0.00,WUHU216HW,2013-04-19 07:02:00,
2013-04-19 00:03:00,47.9,5.8,30.07,WNW,293,2.7,5.6,18,0.00,,,0.00,WUHU216HW,2013-04-19 07:03:00,
2013-04-19 00:06:00,47.9,5.8,30.07,West,270,5.6,5.6,18,0.00,,,0.00,WUHU216HW,2013-04-19 07:06:00,
2013-04-19 00:07:00,47.9,5.8,30.07,West,270,5.1,6.7,18,0.00,,,0.00,WUHU216HW,2013-04-19 07:07:00,
2013-04-19 00:08:00,47.9,5.8,30.07,West,270,4.7,6.7,18,0.00,,,0.00,WUHU216HW,2013-04-19 07:08:00,
2013-04-19 00:11:00,47.7,5.6,30.07,WNW,293,5.6,6.7,18,0.00,,,0.00,WUHU216HW,2013-04-19 07:11:00,
2013-04-19 00:12:00,47.7,5.6,30.07,WSW,248,3.8,6.7,18,0.00,,,0.00,WUHU216HW,2013-04-19 07:12:00,
2013-04-19 00:13:00,47.7,5.6,30.07,WSW,248,4.7,6.7,18,0.00,,,0.00,WUHU216HW,2013-04-19 07:13:00,
2013-04-19 00:14:00,47.5,5.5,30.07,WSW,248,5.1,6.7,18,0.00,,,0.00,WUHU216HW,2013-04-19 07:14:00,
2013-04-19 00:16:00,47.5,5.5,30.07,WSW,248,4.3,6.7,18,0.00,,,0.00,WUHU216HW,2013-04-19 07:16:00,
2013-04-19 00:18:00,47.3,5.3,30.07,WSW,248,5.1,6.5,18,0.00,,,0.00,WUHU216HW,2013-04-19 07:18:00,
2013-04-19 00:19:00,47.3,5.3,30.07,WSW,248,3.8,6.5,18,0.00,,,0.00,WUHU216HW,2013-04-19 07:19:00,
2013-04-19 00:21:00,47.3,5.3,30.07,WSW,248,5.4,6.5,18,0.00,,,0.00,WUHU216HW,2013-04-19 07:21:00,
2013-04-19 00:23:00,47.2,5.2,30.07,West,270,5.4,6.5,18,0.00,,,0.00,WUHU216HW,2013-04-19 07:23:00,
2013-04-19 00:24:00,47.2,5.2,30.07,WSW,248,6.0,6.5,18,0.00,,,0.00,WUHU216HW,2013-04-19 07:24:00,
2013-04-19 00:26:00,47.0,5.0,30.07,West,270,2.5,6.3,18,0.00,,,0.00,WUHU216HW,2013-04-19 07:26:00,
2013-04-19 00:29:00,47.0,5.0,30.07,WSW,248,2.9,6.3,18,0.00,,,0.00,WUHU216HW,2013-04-19 07:29:00,
2013-04-19 00:31:00,47.0,5.0,30.07,WSW,248,4.3,6.3,18,0.00,,,0.00,WUHU216HW,2013-04-19 07:31:00,
2013-04-19 00:34:00,47.0,5.0,30.07,WSW,248,5.6,6.0,18,0.00,,,0.00,WUHU216HW,2013-04-19 07:34:00,
2013-04-19 00:35:00,46.8,4.9,30.07,WSW,248,6.3,6.3,18,0.00,,,0.00,WUHU216HW,2013-04-19 07:35:00,
2013-04-19 00:37:00,46.8,4.9,30.07,West,270,5.6,6.3,18,0.00,,,0.00,WUHU216HW,2013-04-19 07:37:00,
2013-04-19 00:39:00,46.6,4.8,30.07,WSW,248,4.3,6.5,18,0.00,,,0.00,WUHU216HW,2013-04-19 07:39:00,
2013-04-19 00:40:00,46.6,4.8,30.07,WSW,248,4.0,6.5,18,0.00,,,0.00,WUHU216HW,2013-04-19 07:40:00,
2013-04-19 00:42:00,46.4,6.1,30.06,WSW,248,4.0,6.5,19,0.00,,,0.00,WUHU216HW,2013-04-19 07:42:00,
2013-04-19 00:44:00,46.4,7.6,30.07,West,270,3.6,6.5,20,0.00,,,0.00,WUHU216HW,2013-04-19 07:44:00,
2013-04-19 00:45:00,46.4,7.6,30.07,WSW,248,3.4,6.5,20,0.00,,,0.00,WUHU216HW,2013-04-19 07:45:00,
2013-04-19 00:48:00,46.3,7.4,30.06,West,270,4.7,6.5,20,0.00,,,0.00,WUHU216HW,2013-04-19 07:48:00,
2013-04-19 00:49:00,46.1,7.3,30.06,West,270,3.8,6.3,20,0.00,,,0.00,WUHU216HW,2013-04-19 07:49:00,
2013-04-19 00:50:00,46.1,7.3,30.06,West,270,3.6,6.3,20,0.00,,,0.00,WUHU216HW,2013-04-19 07:50:00,
2013-04-19 00:54:00,45.7,7.0,30.06,West,270,3.6,5.1,20,0.00,,,0.00,WUHU216HW,2013-04-19 07:54:00,
2013-04-19 00:55:00,45.7,7.0,30.06,WSW,248,4.5,5.1,20,0.00,,,0.00,WUHU216HW,2013-04-19 07:55:00,
2013-04-19 00:59:00,45.4,6.7,30.06,WSW,248,3.1,5.1,20,0.00,,,0.00,WUHU216HW,2013-04-19 07:59:00,
2013-04-19 01:00:00,45.4,6.7,30.06,West,270,3.4,5.1,20,0.00,,,0.00,WUHU216HW,2013-04-19 08:00:00,
2013-04-19 01:01:00,45.2,6.6,30.06,West,270,2.2,5.1,20,0.00,,,0.00,WUHU216HW,2013-04-19 08:01:00,
2013-04-19 01:04:00,45.0,6.4,30.06,WSW,248,3.8,5.1,20,0.00,,,0.00,WUHU216HW,2013-04-19 08:04:00,
2013-04-19 01:05:00,45.0,6.4,30.06,WSW,248,3.8,5.1,20,0.00,,,0.00,WUHU216HW,2013-04-19 08:05:00,
2013-04-19 01:06:00,45.0,6.4,30.06,WSW,248,2.7,4.9,20,0.00,,,0.00,WUHU216HW,2013-04-19 08:06:00,
2013-04-19 01:10:00,44.5,6.8,30.06,West,270,3.6,4.9,21,0.00,,,0.00,WUHU216HW,2013-04-19 08:10:00,
2013-04-19 01:11:00,44.5,6.8,30.06,West,270,3.4,4.9,21,0.00,,,0.00,WUHU216HW,2013-04-19 08:11:00,
2013-04-19 01:15:00,44.1,6.6,30.06,WSW,248,1.6,4.7,21,0.00,,,0.00,WUHU216HW,2013-04-19 08:15:00,
2013-04-19 01:16:00,44.1,6.6,30.06,West,270,1.8,4.7,21,0.00,,,0.00,WUHU216HW,2013-04-19 08:16:00,
2013-04-19 01:20:00,43.6,6.0,30.06,WSW,248,3.8,4.0,21,0.00,,,0.00,WUHU216HW,2013-04-19 08:20:00,
2013-04-19 01:21:00,43.6,6.0,30.06,West,270,3.4,4.0,21,0.00,,,0.00,WUHU216HW,2013-04-19 08:21:00,
2013-04-19 01:26:00,43.2,6.7,30.06,WSW,248,4.5,5.1,22,0.00,,,0.00,WUHU216HW,2013-04-19 08:26:00,
2013-04-19 01:31:00,42.8,6.3,30.06,WSW,248,3.1,5.1,22,0.00,,,0.00,WUHU216HW,2013-04-19 08:31:00,
2013-04-19 01:32:00,42.8,6.3,30.06,West,270,2.9,5.1,22,0.00,,,0.00,WUHU216HW,2013-04-19 08:32:00,
2013-04-19 01:36:00,42.8,6.3,30.06,West,270,3.4,4.7,22,0.00,,,0.00,WUHU216HW,2013-04-19 08:36:00,
2013-04-19 01:37:00,42.8,6.3,30.06,WSW,248,3.8,4.7,22,0.00,,,0.00,WUHU216HW,2013-04-19 08:37:00,
2013-04-19 01:41:00,42.7,6.1,30.06,WSW,248,3.4,4.7,22,0.00,,,0.00,WUHU216HW,2013-04-19 08:41:00,
2013-04-19 01:42:00,42.7,6.1,30.06,WSW,248,1.8,4.7,22,0.00,,,0.00,WUHU216HW,2013-04-19 08:42:00,
2013-04-19 01:43:00,42.7,6.1,30.06,WSW,248,3.4,4.5,22,0.00,,,0.00,WUHU216HW,2013-04-19 08:43:00,
2013-04-19 01:47:00,42.5,6.0,30.06,WSW,248,4.7,4.7,22,0.00,,,0.00,WUHU216HW,2013-04-19 08:47:00,
2013-04-19 01:48:00,42.5,6.0,30.06,WSW,248,5.1,5.4,22,0.00,,,0.00,WUHU216HW,2013-04-19 08:48:00,
2013-04-19 01:52:00,42.3,5.9,30.05,WSW,248,4.0,5.4,22,0.00,,,0.00,WUHU216HW,2013-04-19 08:52:00,
2013-04-19 01:53:00,42.3,6.8,30.05,WSW,248,3.4,5.4,23,0.00,,,0.00,WUHU216HW,2013-04-19 08:53:00,
2013-04-19 01:57:00,42.3,6.8,30.05,WSW,248,3.4,5.4,23,0.00,,,0.00,WUHU216HW,2013-04-19 08:57:00,
2013-04-19 01:58:00,42.3,5.9,30.05,WSW,248,3.8,5.4,22,0.00,,,0.00,WUHU216HW,2013-04-19 08:58:00,
2013-04-19 02:02:00,42.1,5.8,30.05,WSW,248,3.6,5.4,22,0.00,,,0.00,WUHU216HW,2013-04-19 09:02:00,
2013-04-19 02:03:00,42.1,5.8,30.05,WSW,248,5.1,5.4,22,0.00,,,0.00,WUHU216HW,2013-04-19 09:03:00,
2013-04-19 02:04:00,42.1,5.8,30.05,WSW,248,4.7,5.4,22,0.00,,,0.00,WUHU216HW,2013-04-19 09:04:00,
2013-04-19 02:07:00,42.1,5.8,30.05,WSW,248,4.0,6.0,22,0.00,,,0.00,WUHU216HW,2013-04-19 09:07:00,
2013-04-19 02:08:00,42.1,5.8,30.05,WSW,248,3.1,6.0,22,0.00,,,0.00,WUHU216HW,2013-04-19 09:08:00,
2013-04-19 02:09:00,42.1,5.8,30.05,WSW,248,3.4,6.0,22,0.00,,,0.00,WUHU216HW,2013-04-19 09:09:00,
2013-04-19 02:12:00,42.1,5.8,30.05,WSW,248,4.0,6.0,22,0.00,,,0.00,WUHU216HW,2013-04-19 09:12:00,
2013-04-19 02:13:00,42.1,5.8,30.05,WSW,248,3.4,6.0,22,0.00,,,0.00,WUHU216HW,2013-04-19 09:13:00,
2013-04-19 02:14:00,42.1,5.8,30.05,WSW,248,3.8,6.0,22,0.00,,,0.00,WUHU216HW,2013-04-19 09:14:00,
2013-04-19 02:17:00,42.1,5.8,30.05,WSW,248,3.8,5.8,22,0.00,,,0.00,WUHU216HW,2013-04-19 09:17:00,
2013-04-19 02:18:00,42.1,5.8,30.05,WSW,248,4.0,5.8,22,0.00,,,0.00,WUHU216HW,2013-04-19 09:18:00,
2013-04-19 02:19:00,42.1,5.8,30.05,SW,225,4.7,5.8,22,0.00,,,0.00,WUHU216HW,2013-04-19 09:19:00,
2013-04-19 02:23:00,42.1,5.8,30.05,WSW,248,3.4,5.8,22,0.00,,,0.00,WUHU216HW,2013-04-19 09:23:00,
2013-04-19 02:24:00,42.1,5.8,30.05,WSW,248,2.9,5.8,22,0.00,,,0.00,WUHU216HW,2013-04-19 09:24:00,
2013-04-19 02:25:00,42.1,5.8,30.05,SW,225,4.0,5.8,22,0.00,,,0.00,WUHU216HW,2013-04-19 09:25:00,
2013-04-19 02:28:00,42.1,5.8,30.05,WSW,248,5.8,5.8,22,0.00,,,0.00,WUHU216HW,2013-04-19 09:28:00,
2013-04-19 02:29:00,42.1,5.8,30.05,SW,225,6.0,6.0,22,0.00,,,0.00,WUHU216HW,2013-04-19 09:29:00,
2013-04-19 02:30:00,42.3,5.9,30.05,SSW,203,4.0,6.0,22,0.00,,,0.00,WUHU216HW,2013-04-19 09:30:00,
2013-04-19 02:33:00,42.3,5.9,30.05,WSW,248,2.5,6.0,22,0.00,,,0.00,WUHU216HW,2013-04-19 09:33:00,
2013-04-19 02:34:00,42.3,5.9,30.05,WSW,248,4.0,6.0,22,0.00,,,0.00,WUHU216HW,2013-04-19 09:34:00,
2013-04-19 02:35:00,42.3,5.9,30.05,WSW,248,2.0,6.0,22,0.00,,,0.00,WUHU216HW,2013-04-19 09:35:00,
2013-04-19 02:38:00,42.3,5.9,30.05,WSW,248,0.9,6.0,22,0.00,,,0.00,WUHU216HW,2013-04-19 09:38:00,
2013-04-19 02:39:00,42.5,6.0,30.05,NW,315,0.7,4.7,22,0.00,,,0.00,WUHU216HW,2013-04-19 09:39:00,
2013-04-19 02:40:00,42.5,6.0,30.05,West,270,0.9,4.0,22,0.00,,,0.00,WUHU216HW,2013-04-19 09:40:00,
2013-04-19 02:43:00,42.7,6.1,30.05,WSW,248,4.0,5.4,22,0.00,,,0.00,WUHU216HW,2013-04-19 09:43:00,
2013-04-19 02:44:00,42.7,6.1,30.05,SW,225,3.4,5.4,22,0.00,,,0.00,WUHU216HW,2013-04-19 09:44:00,
2013-04-19 02:46:00,42.8,6.3,30.06,WSW,248,5.4,5.8,22,0.00,,,0.00,WUHU216HW,2013-04-19 09:46:00,
2013-04-19 02:49:00,42.8,6.3,30.05,NW,315,2.5,5.8,22,0.00,,,0.00,WUHU216HW,2013-04-19 09:49:00,
2013-04-19 02:51:00,43.0,6.5,30.05,WSW,248,2.5,5.8,22,0.00,,,0.00,WUHU216HW,2013-04-19 09:51:00,
2013-04-19 02:54:00,43.0,6.5,30.06,SW,225,0.9,5.8,22,0.00,,,0.00,WUHU216HW,2013-04-19 09:54:00,
2013-04-19 02:55:00,43.0,6.5,30.05,WSW,248,1.8,5.8,22,0.00,,,0.00,WUHU216HW,2013-04-19 09:55:00,
2013-04-19 02:56:00,43.0,6.5,30.05,SSW,203,2.5,4.0,22,0.00,,,0.00,WUHU216HW,2013-04-19 09:56:00,
2013-04-19 02:59:00,43.0,6.5,30.05,WSW,248,1.8,3.4,22,0.00,,,0.00,WUHU216HW,2013-04-19 09:59:00,
2013-04-19 03:00:00,42.8,6.3,30.05,WSW,248,1.6,3.4,22,0.00,,,0.00,WUHU216HW,2013-04-19 10:00:00,
2013-04-19 03:01:00,42.8,6.3,30.05,SW,225,1.8,3.4,22,0.00,,,0.00,WUHU216HW,2013-04-19 10:01:00,
2013-04-19 03:04:00,42.7,6.1,30.05,SW,225,1.1,3.4,22,0.00,,,0.00,WUHU216HW,2013-04-19 10:04:00,
2013-04-19 03:05:00,42.7,6.1,30.05,SW,225,1.3,3.4,22,0.00,,,0.00,WUHU216HW,2013-04-19 10:05:00,
2013-04-19 03:06:00,42.5,6.0,30.05,SSW,203,1.8,2.2,22,0.00,,,0.00,WUHU216HW,2013-04-19 10:06:00,
2013-04-19 03:09:00,42.1,5.8,30.05,SW,225,4.9,4.9,22,0.00,,,0.00,WUHU216HW,2013-04-19 10:09:00,
2013-04-19 03:10:00,42.1,5.8,30.05,WSW,248,4.0,4.9,22,0.00,,,0.00,WUHU216HW,2013-04-19 10:10:00,
2013-04-19 03:11:00,41.9,5.6,30.05,SW,225,4.0,4.9,22,0.00,,,0.00,WUHU216HW,2013-04-19 10:11:00,
2013-04-19 03:14:00,41.8,5.4,30.05,WSW,248,4.7,5.6,22,0.00,,,0.00,WUHU216HW,2013-04-19 10:14:00,
2013-04-19 03:15:00,41.6,5.3,30.05,WSW,248,4.0,5.6,22,0.00,,,0.00,WUHU216HW,2013-04-19 10:15:00,
2013-04-19 03:16:00,41.8,5.4,30.05,SW,225,4.9,5.6,22,0.00,,,0.00,WUHU216HW,2013-04-19 10:16:00,
2013-04-19 03:20:00,41.9,5.6,30.05,WSW,248,4.0,5.6,22,0.00,,,0.00,WUHU216HW,2013-04-19 10:20:00,
2013-04-19 03:21:00,41.9,5.6,30.05,SW,225,3.6,5.8,22,0.00,,,0.00,WUHU216HW,2013-04-19 10:21:00,
2013-04-19 03:25:00,42.1,5.8,30.05,WSW,248,4.3,6.3,22,0.00,,,0.00,WUHU216HW,2013-04-19 10:25:00,
2013-04-19 03:26:00,42.1,5.8,30.05,SW,225,4.7,6.3,22,0.00,,,0.00,WUHU216HW,2013-04-19 10:26:00,
2013-04-19 03:30:00,42.1,5.8,30.05,WSW,248,3.4,6.9,22,0.00,,,0.00,WUHU216HW,2013-04-19 10:30:00,
2013-04-19 03:31:00,42.1,5.8,30.05,WSW,248,3.4,6.9,22,0.00,,,0.00,WUHU216HW,2013-04-19 10:31:00,
2013-04-19 03:36:00,42.1,5.8,30.05,SW,225,4.0,6.9,22,0.00,,,0.00,WUHU216HW,2013-04-19 10:36:00,
2013-04-19 03:41:00,41.8,5.4,30.05,WSW,248,5.1,5.4,22,0.00,,,0.00,WUHU216HW,2013-04-19 10:41:00,
2013-04-19 03:42:00,41.8,5.4,30.05,WSW,248,5.6,5.6,22,0.00,,,0.00,WUHU216HW,2013-04-19 10:42:00,
2013-04-19 03:46:00,41.4,6.0,30.05,West,270,2.5,6.0,23,0.00,,,0.00,WUHU216HW,2013-04-19 10:46:00,
2013-04-19 03:47:00,41.4,6.0,30.05,West,270,3.4,6.0,23,0.00,,,0.00,WUHU216HW,2013-04-19 10:47:00,
2013-04-19 03:51:00,41.2,6.0,30.05,West,270,3.1,6.0,23,0.00,,,0.00,WUHU216HW,2013-04-19 10:51:00,
2013-04-19 03:52:00,41.2,6.0,30.05,West,270,3.8,6.0,23,0.00,,,0.00,WUHU216HW,2013-04-19 10:52:00,
2013-04-19 03:57:00,41.0,5.8,30.05,WSW,248,2.5,4.7,23,0.00,,,0.00,WUHU216HW,2013-04-19 10:57:00,
2013-04-19 03:58:00,41.0,5.8,30.05,WSW,248,3.4,4.7,23,0.00,,,0.00,WUHU216HW,2013-04-19 10:58:00,
2013-04-19 04:02:00,41.0,5.8,30.05,West,270,2.0,4.7,23,0.00,,,0.00,WUHU216HW,2013-04-19 11:02:00,
2013-04-19 04:03:00,41.0,5.8,30.05,WSW,248,2.0,4.7,23,0.00,,,0.00,WUHU216HW,2013-04-19 11:03:00,
2013-04-19 04:07:00,41.0,5.8,30.05,WSW,248,3.4,3.8,23,0.00,,,0.00,WUHU216HW,2013-04-19 11:07:00,
2013-04-19 04:08:00,40.9,5.6,30.05,WSW,248,4.0,4.0,23,0.00,,,0.00,WUHU216HW,2013-04-19 11:08:00,
2013-04-19 04:12:00,40.9,5.6,30.05,WSW,248,1.1,4.0,23,0.00,,,0.00,WUHU216HW,2013-04-19 11:12:00,
2013-04-19 04:13:00,40.7,5.4,30.05,WSW,248,0.9,4.0,23,0.00,,,0.00,WUHU216HW,2013-04-19 11:13:00,
2013-04-19 04:17:00,40.5,5.3,30.05,WSW,248,1.6,4.0,23,0.00,,,0.00,WUHU216HW,2013-04-19 11:17:00,
2013-04-19 04:18:00,40.5,5.3,30.05,WSW,248,2.0,4.0,23,0.00,,,0.00,WUHU216HW,2013-04-19 11:18:00,
2013-04-19 04:22:00,40.0,4.8,30.05,WSW,248,4.0,4.5,23,0.00,,,0.00,WUHU216HW,2013-04-19 11:22:00,
2013-04-19 04:23:00,40.0,4.8,30.05,WSW,248,4.7,4.7,23,0.00,,,0.00,WUHU216HW,2013-04-19 11:23:00,
2013-04-19 04:27:00,39.4,5.2,30.05,WSW,248,2.7,5.8,24,0.00,,,0.00,WUHU216HW,2013-04-19 11:27:00,
2013-04-19 04:28:00,39.4,5.2,30.05,WSW,248,4.0,5.8,24,0.00,,,0.00,WUHU216HW,2013-04-19 11:28:00,
2013-04-19 04:33:00,39.2,5.0,30.05,WSW,248,2.2,5.8,24,0.00,,,0.00,WUHU216HW,2013-04-19 11:33:00,
2013-04-19 04:34:00,39.4,5.2,30.05,WSW,248,3.1,5.8,24,0.00,,,0.00,WUHU216HW,2013-04-19 11:34:00,
2013-04-19 04:38:00,39.2,5.0,30.05,WSW,248,3.1,4.0,24,0.00,,,0.00,WUHU216HW,2013-04-19 11:38:00,
2013-04-19 04:39:00,39.2,5.0,30.05,SW,225,3.4,4.0,24,0.00,,,0.00,WUHU216HW,2013-04-19 11:39:00,
2013-04-19 04:43:00,39.4,5.2,30.06,SW,225,2.9,4.0,24,0.00,,,0.00,WUHU216HW,2013-04-19 11:43:00,
2013-04-19 04:44:00,39.4,5.2,30.06,SW,225,2.5,4.0,24,0.00,,,0.00,WUHU216HW,2013-04-19 11:44:00,
2013-04-19 04:48:00,39.4,5.2,30.06,WSW,248,2.5,3.8,24,0.00,,,0.00,WUHU216HW,2013-04-19 11:48:00,
2013-04-19 04:49:00,39.4,5.2,30.06,WSW,248,1.8,3.8,24,0.00,,,0.00,WUHU216HW,2013-04-19 11:49:00,
2013-04-19 04:53:00,39.4,5.2,30.06,SW,225,0.9,3.1,24,0.00,,,0.00,WUHU216HW,2013-04-19 11:53:00,
2013-04-19 04:54:00,39.4,5.2,30.06,SW,225,1.1,2.9,24,0.00,,,0.00,WUHU216HW,2013-04-19 11:54:00,
2013-04-19 04:58:00,39.2,5.0,30.06,SW,225,0.9,2.5,24,0.00,,,0.00,WUHU216HW,2013-04-19 11:58:00,
2013-04-19 04:59:00,39.2,5.0,30.06,WSW,248,0.9,2.5,24,0.00,,,0.00,WUHU216HW,2013-04-19 11:59:00,
2013-04-19 05:03:00,39.2,5.0,30.06,SW,225,1.8,2.5,24,0.00,,,0.00,WUHU216HW,2013-04-19 12:03:00,
2013-04-19 05:04:00,39.1,4.9,30.06,SW,225,2.0,2.5,24,0.00,,,0.00,WUHU216HW,2013-04-19 12:04:00,
2013-04-19 05:05:00,39.1,4.9,30.06,SW,225,1.8,2.5,24,0.00,,,0.00,WUHU216HW,2013-04-19 12:05:00,
2013-04-19 05:08:00,38.9,4.8,30.06,WSW,248,2.5,2.5,24,0.00,,,0.00,WUHU216HW,2013-04-19 12:08:00,
2013-04-19 05:09:00,38.9,4.8,30.06,SW,225,1.1,2.5,24,0.00,,,0.00,WUHU216HW,2013-04-19 12:09:00,
2013-04-19 05:10:00,38.9,4.8,30.06,SW,225,1.1,2.5,24,0.00,,,0.00,WUHU216HW,2013-04-19 12:10:00,
2013-04-19 05:14:00,38.5,4.4,30.07,SW,225,1.6,2.5,24,0.00,,,0.00,WUHU216HW,2013-04-19 12:14:00,
2013-04-19 05:15:00,38.5,4.4,30.06,SW,225,2.0,2.5,24,0.00,,,0.00,WUHU216HW,2013-04-19 12:15:00,
2013-04-19 05:19:00,38.3,4.3,30.07,SSW,203,3.4,3.4,24,0.00,,,0.00,WUHU216HW,2013-04-19 12:19:00,
2013-04-19 05:20:00,38.3,4.3,30.07,SW,225,1.3,3.4,24,0.00,,,0.00,WUHU216HW,2013-04-19 12:20:00,
2013-04-19 05:24:00,38.2,4.2,30.06,SW,225,1.3,3.4,24,0.00,,,0.00,WUHU216HW,2013-04-19 12:24:00,
2013-04-19 05:25:00,38.2,4.2,30.07,SW,225,1.3,3.4,24,0.00,,,0.00,WUHU216HW,2013-04-19 12:25:00,
2013-04-19 05:26:00,38.2,4.2,30.07,SSW,203,0.7,3.4,24,0.00,,,0.00,WUHU216HW,2013-04-19 12:26:00,
2013-04-19 05:29:00,38.0,4.0,30.07,SW,225,0.9,3.4,24,0.00,,,0.00,WUHU216HW,2013-04-19 12:29:00,
2013-04-19 05:30:00,38.0,4.0,30.07,SW,225,0.9,2.5,24,0.00,,,0.00,WUHU216HW,2013-04-19 12:30:00,
2013-04-19 05:31:00,38.0,4.0,30.07,SSW,203,1.3,2.5,24,0.00,,,0.00,WUHU216HW,2013-04-19 12:31:00,
2013-04-19 05:34:00,38.0,4.0,30.07,WSW,248,1.3,2.9,24,0.00,,,0.00,WUHU216HW,2013-04-19 12:34:00,
2013-04-19 05:35:00,38.0,4.0,30.07,West,270,0.2,2.9,24,0.00,,,0.00,WUHU216HW,2013-04-19 12:35:00,
2013-04-19 05:36:00,38.2,4.2,30.07,SW,225,0.9,2.9,24,0.00,,,0.00,WUHU216HW,2013-04-19 12:36:00,
2013-04-19 05:39:00,38.5,5.3,30.07,SSW,203,0.7,2.9,25,0.00,,,0.00,WUHU216HW,2013-04-19 12:39:00,
2013-04-19 05:40:00,38.5,5.3,30.07,SSW,203,2.7,2.9,25,0.00,,,0.00,WUHU216HW,2013-04-19 12:40:00,
2013-04-19 05:41:00,38.5,5.3,30.07,SW,225,2.0,2.9,25,0.00,,,0.00,WUHU216HW,2013-04-19 12:41:00,
2013-04-19 05:45:00,38.9,5.7,30.07,West,270,0.4,2.9,25,0.00,,,0.00,WUHU216HW,2013-04-19 12:45:00,
2013-04-19 05:46:00,39.2,5.0,30.07,WSW,248,2.0,2.9,24,0.00,,,0.00,WUHU216HW,2013-04-19 12:46:00,
2013-04-19 05:50:00,39.6,5.4,30.08,WSW,248,0.4,2.7,24,0.00,,,0.00,WUHU216HW,2013-04-19 12:50:00,
2013-04-19 05:51:00,39.8,5.5,30.07,SSW,203,0.4,2.5,24,0.00,,,0.00,WUHU216HW,2013-04-19 12:51:00,
2013-04-19 05:52:00,39.8,5.5,30.07,SSW,203,0.0,2.5,24,0.00,,,0.00,WUHU216HW,2013-04-19 12:52:00,
2013-04-19 05:55:00,40.0,5.7,30.08,SSW,203,0.2,2.5,24,0.00,,,0.00,WUHU216HW,2013-04-19 12:55:00,
2013-04-19 05:57:00,40.0,5.7,30.08,SW,225,0.4,2.5,24,0.00,,,0.00,WUHU216HW,2013-04-19 12:57:00,
2013-04-19 06:00:00,40.3,6.0,30.08,WSW,248,0.0,1.1,24,0.00,,,0.00,WUHU216HW,2013-04-19 13:00:00,
2013-04-19 06:01:00,40.3,6.0,30.08,WSW,248,0.0,1.1,24,0.00,,,0.00,WUHU216HW,2013-04-19 13:01:00,
2013-04-19 06:02:00,40.5,6.2,30.08,SW,225,0.2,1.1,24,0.00,,,0.00,WUHU216HW,2013-04-19 13:02:00,
2013-04-19 06:03:00,40.5,6.2,30.08,WSW,248,0.9,1.1,24,0.00,,,0.00,WUHU216HW,2013-04-19 13:03:00,
2013-04-19 06:05:00,40.7,5.4,30.08,WSW,248,0.7,1.1,23,0.00,,,0.00,WUHU216HW,2013-04-19 13:05:00,
2013-04-19 06:06:00,40.7,5.4,30.08,WSW,248,1.1,1.1,23,0.00,,,0.00,WUHU216HW,2013-04-19 13:06:00,
2013-04-19 06:07:00,40.7,5.4,30.08,SW,225,1.3,1.3,23,0.00,,,0.00,WUHU216HW,2013-04-19 13:07:00,
2013-04-19 06:08:00,40.7,5.4,30.08,South,180,1.3,1.6,23,0.00,,,0.00,WUHU216HW,2013-04-19 13:08:00,
2013-04-19 06:11:00,40.7,5.4,30.09,SE,135,0.0,1.6,23,0.00,,,0.00,WUHU216HW,2013-04-19 13:11:00,
2013-04-19 06:12:00,40.9,5.6,30.09,West,270,1.1,1.6,23,0.00,,,0.00,WUHU216HW,2013-04-19 13:12:00,
2013-04-19 06:13:00,40.9,5.6,30.09,NW,315,1.1,1.6,23,0.00,,,0.00,WUHU216HW,2013-04-19 13:13:00,
2013-04-19 06:16:00,41.0,5.8,30.09,WNW,293,1.8,1.8,23,0.00,,,0.00,WUHU216HW,2013-04-19 13:16:00,
2013-04-19 06:17:00,41.0,5.8,30.09,NNW,338,0.4,1.8,23,0.00,,,0.00,WUHU216HW,2013-04-19 13:17:00,
2013-04-19 06:18:00,41.4,6.0,30.09,NNW,338,0.7,1.8,23,0.00,,,0.00,WUHU216HW,2013-04-19 13:18:00,
2013-04-19 06:21:00,41.8,6.3,30.09,NNE,23,0.4,2.0,23,0.00,,,0.00,WUHU216HW,2013-04-19 13:21:00,
2013-04-19 06:22:00,41.8,6.3,30.09,NNE,23,0.7,2.0,23,0.00,,,0.00,WUHU216HW,2013-04-19 13:22:00,
2013-04-19 06:23:00,41.9,6.5,30.09,North,0,1.1,2.0,23,0.00,,,0.00,WUHU216HW,2013-04-19 13:23:00,
2013-04-19 06:26:00,42.5,6.9,30.09,East,90,0.9,2.0,23,0.00,,,0.00,WUHU216HW,2013-04-19 13:26:00,
2013-04-19 06:27:00,42.7,7.0,30.09,ESE,113,0.4,2.0,23,0.00,,,0.00,WUHU216HW,2013-04-19 13:27:00,
2013-04-19 06:28:00,42.8,7.2,30.09,East,90,0.7,2.0,23,0.00,,,0.00,WUHU216HW,2013-04-19 13:28:00,
2013-04-19 06:32:00,43.4,7.7,30.09,ESE,113,0.0,2.0,23,0.00,,,0.00,WUHU216HW,2013-04-19 13:32:00,
2013-04-19 06:33:00,43.6,7.8,30.09,ESE,113,0.0,2.0,23,0.00,,,0.00,WUHU216HW,2013-04-19 13:33:00,
2013-04-19 06:37:00,44.1,7.5,30.10,SSE,158,0.0,1.1,22,0.00,,,0.00,WUHU216HW,2013-04-19 13:37:00,
2013-04-19 06:38:00,44.3,7.6,30.10,SSE,158,0.0,0.4,22,0.00,,,0.00,WUHU216HW,2013-04-19 13:38:00,
2013-04-19 06:39:00,44.3,7.6,30.10,SSE,158,0.0,0.4,22,0.00,,,0.00,WUHU216HW,2013-04-19 13:39:00,
2013-04-19 06:42:00,44.8,8.1,30.10,SSE,158,0.0,0.0,22,0.00,,,0.00,WUHU216HW,2013-04-19 13:42:00,
2013-04-19 06:43:00,44.8,8.1,30.10,SSE,158,0.0,0.0,22,0.00,,,0.00,WUHU216HW,2013-04-19 13:43:00,
2013-04-19 06:44:00,45.0,8.2,30.10,South,180,0.0,0.0,22,0.00,,,0.00,WUHU216HW,2013-04-19 13:44:00,
2013-04-19 06:47:00,45.5,7.7,30.10,SSW,203,0.0,0.0,21,0.00,,,0.00,WUHU216HW,2013-04-19 13:47:00,
2013-04-19 06:48:00,45.7,7.9,30.10,SSW,203,0.0,0.0,21,0.00,,,0.00,WUHU216HW,2013-04-19 13:48:00,
2013-04-19 06:49:00,45.7,7.9,30.10,SSW,203,0.0,0.0,21,0.00,,,0.00,WUHU216HW,2013-04-19 13:49:00,
2013-04-19 06:52:00,46.3,8.4,30.10,NNW,338,1.1,1.6,21,0.00,,,0.00,WUHU216HW,2013-04-19 13:52:00,
2013-04-19 06:53:00,46.3,7.4,30.10,NNW,338,0.4,1.6,20,0.00,,,0.00,WUHU216HW,2013-04-19 13:53:00,
2013-04-19 06:54:00,46.4,7.6,30.10,NNW,338,0.0,1.6,20,0.00,,,0.00,WUHU216HW,2013-04-19 13:54:00,
2013-04-19 06:57:00,47.0,8.0,30.10,NW,315,1.3,1.6,20,0.00,,,0.00,WUHU216HW,2013-04-19 13:57:00,
2013-04-19 06:58:00,47.2,8.1,30.10,NW,315,0.7,1.6,20,0.00,,,0.00,WUHU216HW,2013-04-19 13:58:00,
2013-04-19 06:59:00,47.2,8.1,30.10,NNW,338,0.9,1.6,20,0.00,,,0.00,WUHU216HW,2013-04-19 13:59:00,
2013-04-19 07:00:00,47.2,8.1,30.10,NW,315,0.4,1.6,20,0.00,,,0.00,WUHU216HW,2013-04-19 14:00:00,
2013-04-19 07:03:00,47.7,5.6,30.10,NW,315,0.4,1.3,18,0.00,,,0.00,WUHU216HW,2013-04-19 14:03:00,
2013-04-19 07:04:00,47.7,5.6,30.10,WSW,248,1.6,1.6,18,0.00,,,0.00,WUHU216HW,2013-04-19 14:04:00,
2013-04-19 07:05:00,47.9,5.8,30.10,West,270,1.1,1.8,18,0.00,,,0.00,WUHU216HW,2013-04-19 14:05:00,
2013-04-19 07:07:00,48.1,6.0,30.10,WNW,293,0.7,1.8,18,0.00,,,0.00,WUHU216HW,2013-04-19 14:07:00,
2013-04-19 07:09:00,48.1,6.0,30.10,NW,315,0.4,1.8,18,0.00,,,0.00,WUHU216HW,2013-04-19 14:09:00,
2013-04-19 07:10:00,48.2,6.0,30.10,NW,315,0.0,1.8,18,0.00,,,0.00,WUHU216HW,2013-04-19 14:10:00,
2013-04-19 07:13:00,48.6,6.4,30.10,NNE,23,1.1,1.8,18,0.00,,,0.00,WUHU216HW,2013-04-19 14:13:00,
2013-04-19 07:14:00,49.0,6.7,30.10,SE,135,0.4,1.8,18,0.00,,,0.00,WUHU216HW,2013-04-19 14:14:00,
2013-04-19 07:15:00,49.3,7.0,30.10,North,0,0.7,1.1,18,0.00,,,0.00,WUHU216HW,2013-04-19 14:15:00,
2013-04-19 07:16:00,49.3,7.0,30.10,North,0,0.7,1.1,18,0.00,,,0.00,WUHU216HW,2013-04-19 14:16:00,
2013-04-19 07:18:00,49.7,5.8,30.10,NNW,338,0.0,1.6,17,0.00,,,0.00,WUHU216HW,2013-04-19 14:18:00,
2013-04-19 07:19:00,49.9,6.0,30.10,North,0,0.7,1.6,17,0.00,,,0.00,WUHU216HW,2013-04-19 14:19:00,
2013-04-19 07:20:00,50.0,6.1,30.10,North,0,0.4,1.6,17,0.00,,,0.00,WUHU216HW,2013-04-19 14:20:00,
2013-04-19 07:21:00,50.0,6.1,30.10,NNE,23,0.0,1.6,17,0.00,,,0.00,WUHU216HW,2013-04-19 14:21:00,
2013-04-19 07:23:00,50.4,7.9,30.10,SSE,158,2.0,3.6,18,0.00,,,0.00,WUHU216HW,2013-04-19 14:23:00,
2013-04-19 07:24:00,50.6,8.0,30.10,East,90,2.9,3.6,18,0.00,,,0.00,WUHU216HW,2013-04-19 14:24:00,
2013-04-19 07:25:00,50.8,8.2,30.10,East,90,2.2,3.6,18,0.00,,,0.00,WUHU216HW,2013-04-19 14:25:00,
2013-04-19 07:26:00,50.9,8.3,30.10,East,90,3.6,3.6,18,0.00,,,0.00,WUHU216HW,2013-04-19 14:26:00,
2013-04-19 07:28:00,51.5,8.7,30.10,SSE,158,8.7,9.4,18,0.00,,,0.00,WUHU216HW,2013-04-19 14:28:00,
2013-04-19 07:29:00,51.8,9.0,30.10,SE,135,8.5,9.4,18,0.00,,,0.00,WUHU216HW,2013-04-19 14:29:00,
2013-04-19 07:30:00,51.8,9.0,30.10,ESE,113,7.6,9.4,18,0.00,,,0.00,WUHU216HW,2013-04-19 14:30:00,
2013-04-19 07:31:00,52.0,7.7,30.10,SE,135,7.6,9.4,17,0.00,,,0.00,WUHU216HW,2013-04-19 14:31:00,
2013-04-19 07:33:00,52.6,8.1,30.10,SSE,158,7.8,10.7,17,0.00,,,0.00,WUHU216HW,2013-04-19 14:33:00,
2013-04-19 07:35:00,52.7,8.3,30.10,SE,135,7.2,10.7,17,0.00,,,0.00,WUHU216HW,2013-04-19 14:35:00,
2013-04-19 07:36:00,52.9,8.4,30.10,ESE,113,5.4,10.7,17,0.00,,,0.00,WUHU216HW,2013-04-19 14:36:00,
2013-04-19 07:38:00,53.3,7.2,30.10,SE,135,6.5,10.7,16,0.00,,,0.00,WUHU216HW,2013-04-19 14:38:00,
2013-04-19 07:40:00,53.6,7.5,30.10,SE,135,9.6,10.7,16,0.00,,,0.00,WUHU216HW,2013-04-19 14:40:00,
2013-04-19 07:41:00,53.6,7.5,30.10,SE,135,5.6,10.7,16,0.00,,,0.00,WUHU216HW,2013-04-19 14:41:00,
2013-04-19 07:42:00,53.8,7.7,30.10,SE,135,4.7,10.7,16,0.00,,,0.00,WUHU216HW,2013-04-19 14:42:00,
2013-04-19 07:45:00,54.2,7.9,30.10,SSE,158,9.4,10.3,16,0.00,,,0.00,WUHU216HW,2013-04-19 14:45:00,
2013-04-19 07:47:00,54.5,9.7,30.10,SE,135,8.1,10.3,17,0.00,,,0.00,WUHU216HW,2013-04-19 14:47:00,
2013-04-19 07:50:00,54.9,8.6,30.10,ESE,113,7.4,10.3,16,0.00,,,0.00,WUHU216HW,2013-04-19 14:50:00,
2013-04-19 07:51:00,55.1,8.7,30.10,East,90,8.7,9.4,16,0.00,,,0.00,WUHU216HW,2013-04-19 14:51:00,
2013-04-19 07:52:00,55.1,8.7,30.10,East,90,7.4,9.4,16,0.00,,,0.00,WUHU216HW,2013-04-19 14:52:00,
2013-04-19 07:55:00,55.4,9.0,30.10,SE,135,4.5,9.4,16,0.00,,,0.00,WUHU216HW,2013-04-19 14:55:00,
2013-04-19 07:56:00,55.6,9.2,30.11,SE,135,8.5,9.2,16,0.00,,,0.00,WUHU216HW,2013-04-19 14:56:00,
2013-04-19 07:57:00,55.6,9.2,30.11,East,90,7.2,9.2,16,0.00,,,0.00,WUHU216HW,2013-04-19 14:57:00,
2013-04-19 08:00:00,55.8,9.3,30.11,SE,135,8.5,9.2,16,0.00,,,0.00,WUHU216HW,2013-04-19 15:00:00,
2013-04-19 08:01:00,55.8,9.3,30.11,SE,135,3.8,9.2,16,0.00,,,0.00,WUHU216HW,2013-04-19 15:01:00,
2013-04-19 08:02:00,56.0,9.5,30.11,SE,135,4.5,9.2,16,0.00,,,0.00,WUHU216HW,2013-04-19 15:02:00,
2013-04-19 08:05:00,56.2,9.5,30.11,ESE,113,7.2,9.2,16,0.00,,,0.00,WUHU216HW,2013-04-19 15:05:00,
2013-04-19 08:06:00,56.3,9.7,30.11,SE,135,7.4,9.2,16,0.00,,,0.00,WUHU216HW,2013-04-19 15:06:00,
2013-04-19 08:07:00,56.5,9.8,30.11,SE,135,4.7,8.9,16,0.00,,,0.00,WUHU216HW,2013-04-19 15:07:00,
2013-04-19 08:10:00,56.7,10.0,30.11,SE,135,5.4,8.9,16,0.00,,,0.00,WUHU216HW,2013-04-19 15:10:00,
2013-04-19 08:12:00,56.9,10.1,30.11,SE,135,10.5,10.5,16,0.00,,,0.00,WUHU216HW,2013-04-19 15:12:00,
2013-04-19 08:16:00,57.2,10.4,30.11,SSE,158,13.4,15.0,16,0.00,,,0.00,WUHU216HW,2013-04-19 15:16:00,
2013-04-19 08:17:00,57.2,8.8,30.10,SSE,158,10.7,15.0,15,0.00,,,0.00,WUHU216HW,2013-04-19 15:17:00,
2013-04-19 08:21:00,57.6,9.1,30.10,SSE,158,10.5,15.0,15,0.00,,,0.00,WUHU216HW,2013-04-19 15:21:00,
2013-04-19 08:22:00,57.6,9.1,30.10,ESE,113,9.2,15.0,15,0.00,,,0.00,WUHU216HW,2013-04-19 15:22:00,
2013-04-19 08:23:00,57.8,9.3,30.10,SSE,158,13.4,13.4,15,0.00,,,0.00,WUHU216HW,2013-04-19 15:23:00,
2013-04-19 08:26:00,58.0,9.4,30.10,SE,135,6.9,13.4,15,0.00,,,0.00,WUHU216HW,2013-04-19 15:26:00,
2013-04-19 08:27:00,58.0,9.4,30.10,SSE,158,14.1,15.7,15,0.00,,,0.00,WUHU216HW,2013-04-19 15:27:00,
2013-04-19 08:28:00,58.1,9.5,30.10,SE,135,11.0,15.7,15,0.00,,,0.00,WUHU216HW,2013-04-19 15:28:00,
2013-04-19 08:31:00,58.3,6.6,30.10,SW,225,8.3,15.7,13,0.00,,,0.00,WUHU216HW,2013-04-19 15:31:00,
2013-04-19 08:32:00,58.3,6.6,30.10,South,180,12.8,15.7,13,0.00,,,0.00,WUHU216HW,2013-04-19 15:32:00,
2013-04-19 08:33:00,58.5,6.8,30.10,SE,135,12.8,15.7,13,0.00,,,0.00,WUHU216HW,2013-04-19 15:33:00,
2013-04-19 08:36:00,58.5,6.8,30.10,SE,135,10.5,15.7,13,0.00,,,0.00,WUHU216HW,2013-04-19 15:36:00,
2013-04-19 08:37:00,58.5,6.8,30.10,SSE,158,11.9,15.0,13,0.00,,,0.00,WUHU216HW,2013-04-19 15:37:00,
2013-04-19 08:38:00,58.5,6.8,30.10,ESE,113,12.8,15.2,13,0.00,,,0.00,WUHU216HW,2013-04-19 15:38:00,
2013-04-19 08:41:00,58.7,6.8,30.10,SE,135,12.8,15.2,13,0.00,,,0.00,WUHU216HW,2013-04-19 15:41:00,
2013-04-19 08:42:00,58.7,6.8,30.10,SSE,158,13.0,15.2,13,0.00,,,0.00,WUHU216HW,2013-04-19 15:42:00,
2013-04-19 08:43:00,58.9,7.0,30.10,South,180,13.4,15.2,13,0.00,,,0.00,WUHU216HW,2013-04-19 15:43:00,
2013-04-19 08:44:00,58.9,7.0,30.10,SSE,158,10.7,15.2,13,0.00,,,0.00,WUHU216HW,2013-04-19 15:44:00,
2013-04-19 08:47:00,59.0,7.2,30.10,ESE,113,5.4,15.2,13,0.00,,,0.00,WUHU216HW,2013-04-19 15:47:00,
2013-04-19 08:48:00,59.0,7.2,30.10,ESE,113,11.6,15.2,13,0.00,,,0.00,WUHU216HW,2013-04-19 15:48:00,
2013-04-19 08:49:00,59.2,7.3,30.10,South,180,7.8,13.4,13,0.00,,,0.00,WUHU216HW,2013-04-19 15:49:00,
2013-04-19 08:52:00,59.4,7.5,30.10,SSE,158,10.1,14.8,13,0.00,,,0.00,WUHU216HW,2013-04-19 15:52:00,
2013-04-19 08:53:00,59.4,7.5,30.10,SE,135,15.0,15.0,13,0.00,,,0.00,WUHU216HW,2013-04-19 15:53:00,
2013-04-19 08:54:00,59.8,7.7,30.10,SSW,203,13.4,15.0,13,0.00,,,0.00,WUHU216HW,2013-04-19 15:54:00,
2013-04-19 08:57:00,59.8,7.7,30.10,South,180,8.5,16.6,13,0.00,,,0.00,WUHU216HW,2013-04-19 15:57:00,
2013-04-19 08:58:00,59.9,7.9,30.10,SE,135,13.2,16.6,13,0.00,,,0.00,WUHU216HW,2013-04-19 15:58:00,
2013-04-19 08:59:00,59.9,7.9,30.10,SE,135,16.3,16.6,13,0.00,,,0.00,WUHU216HW,2013-04-19 15:59:00,
2013-04-19 09:03:00,59.9,6.4,30.10,ESE,113,8.9,16.6,12,0.00,,,0.00,WUHU216HW,2013-04-19 16:03:00,
2013-04-19 09:04:00,60.1,8.1,30.10,SSE,158,9.2,16.6,13,0.00,,,0.00,WUHU216HW,2013-04-19 16:04:00,
2013-04-19 09:08:00,60.5,6.9,30.10,SE,135,9.4,16.3,12,0.00,,,0.00,WUHU216HW,2013-04-19 16:08:00,
2013-04-19 09:09:00,60.5,6.9,30.10,SSE,158,6.9,16.3,12,0.00,,,0.00,WUHU216HW,2013-04-19 16:09:00,
2013-04-19 09:13:00,60.8,7.1,30.10,ESE,113,14.3,14.5,12,0.00,,,0.00,WUHU216HW,2013-04-19 16:13:00,
2013-04-19 09:14:00,60.8,7.1,30.10,ESE,113,12.8,14.5,12,0.00,,,0.00,WUHU216HW,2013-04-19 16:14:00,
2013-04-19 09:15:00,60.8,7.1,30.10,SE,135,9.8,14.5,12,0.00,,,0.00,WUHU216HW,2013-04-19 16:15:00,
2013-04-19 09:19:00,61.2,7.4,30.10,SSE,158,7.4,14.3,12,0.00,,,0.00,WUHU216HW,2013-04-19 16:19:00,
2013-04-19 09:20:00,61.4,7.6,30.10,SSE,158,11.4,14.3,12,0.00,,,0.00,WUHU216HW,2013-04-19 16:20:00,
2013-04-19 09:24:00,61.6,7.7,30.10,SSE,158,9.2,14.3,12,0.00,,,0.00,WUHU216HW,2013-04-19 16:24:00,
2013-04-19 09:25:00,61.7,7.8,30.10,ESE,113,12.3,14.3,12,0.00,,,0.00,WUHU216HW,2013-04-19 16:25:00,
2013-04-19 09:29:00,62.3,8.3,30.10,SE,135,15.2,15.2,12,0.00,,,0.00,WUHU216HW,2013-04-19 16:29:00,
2013-04-19 09:30:00,62.3,8.3,30.10,SE,135,11.4,15.2,12,0.00,,,0.00,WUHU216HW,2013-04-19 16:30:00,
2013-04-19 09:34:00,62.3,8.3,30.10,SE,135,8.9,15.2,12,0.00,,,0.00,WUHU216HW,2013-04-19 16:34:00,
2013-04-19 09:35:00,62.3,8.3,30.10,SE,135,7.4,15.2,12,0.00,,,0.00,WUHU216HW,2013-04-19 16:35:00,
2013-04-19 09:36:00,62.3,8.3,30.10,ESE,113,9.8,15.2,12,0.00,,,0.00,WUHU216HW,2013-04-19 16:36:00,
2013-04-19 09:39:00,62.8,8.6,30.10,SE,135,9.6,14.3,12,0.00,,,0.00,WUHU216HW,2013-04-19 16:39:00,
2013-04-19 09:41:00,63.0,8.8,30.10,SSE,158,4.0,14.3,12,0.00,,,0.00,WUHU216HW,2013-04-19 16:41:00,
2013-04-19 09:44:00,63.2,7.4,30.10,ESE,113,10.5,12.1,11,0.00,,,0.00,WUHU216HW,2013-04-19 16:44:00,
2013-04-19 09:46:00,63.2,7.4,30.10,ESE,113,13.4,13.4,11,0.00,,,0.00,WUHU216HW,2013-04-19 16:46:00,
2013-04-19 09:49:00,63.4,7.5,30.10,SSE,158,8.1,18.1,11,0.00,,,0.00,WUHU216HW,2013-04-19 16:49:00,
2013-04-19 09:50:00,63.4,7.5,30.10,SSE,158,10.7,18.1,11,0.00,,,0.00,WUHU216HW,2013-04-19 16:50:00,
2013-04-19 09:51:00,63.5,7.7,30.10,SE,135,11.2,18.1,11,0.00,,,0.00,WUHU216HW,2013-04-19 16:51:00,
2013-04-19 09:54:00,63.7,7.8,30.10,SE,135,13.2,18.1,11,0.00,,,0.00,WUHU216HW,2013-04-19 16:54:00,
2013-04-19 09:55:00,63.5,7.7,30.10,SE,135,12.5,18.1,11,0.00,,,0.00,WUHU216HW,2013-04-19 16:55:00,
2013-04-19 09:56:00,63.7,7.8,30.10,SE,135,12.3,18.1,11,0.00,,,0.00,WUHU216HW,2013-04-19 16:56:00,
2013-04-19 09:57:00,63.7,7.8,30.10,SE,135,9.8,18.1,11,0.00,,,0.00,WUHU216HW,2013-04-19 16:57:00,
2013-04-19 10:00:00,63.7,7.8,30.10,SSE,158,11.9,15.0,11,0.00,,,0.00,WUHU216HW,2013-04-19 17:00:00,
2013-04-19 10:01:00,63.9,7.8,30.10,SE,135,6.9,15.0,11,0.00,,,0.00,WUHU216HW,2013-04-19 17:01:00,
2013-04-19 10:02:00,63.9,7.8,30.10,ESE,113,6.3,15.0,11,0.00,,,0.00,WUHU216HW,2013-04-19 17:02:00,
2013-04-19 10:05:00,64.1,8.0,30.10,SE,135,9.8,15.0,11,0.00,,,0.00,WUHU216HW,2013-04-19 17:05:00,
2013-04-19 10:06:00,64.3,8.1,30.10,SSW,203,7.6,13.4,11,0.00,,,0.00,WUHU216HW,2013-04-19 17:06:00,
2013-04-19 10:07:00,64.4,8.3,30.10,SE,135,14.1,14.1,11,0.00,,,0.00,WUHU216HW,2013-04-19 17:07:00,
2013-04-19 10:10:00,64.6,8.4,30.11,SSW,203,8.9,14.1,11,0.00,,,0.00,WUHU216HW,2013-04-19 17:10:00,
2013-04-19 10:12:00,64.8,8.6,30.10,SE,135,9.8,14.1,11,0.00,,,0.00,WUHU216HW,2013-04-19 17:12:00,
2013-04-19 10:15:00,65.2,8.8,30.11,ESE,113,9.2,15.2,11,0.00,,,0.00,WUHU216HW,2013-04-19 17:15:00,
2013-04-19 10:17:00,65.2,8.8,30.11,ESE,113,8.3,15.2,11,0.00,,,0.00,WUHU216HW,2013-04-19 17:17:00,
2013-04-19 10:18:00,65.2,7.2,30.11,SSE,158,12.3,15.2,10,0.00,,,0.00,WUHU216HW,2013-04-19 17:18:00,
2013-04-19 10:20:00,65.3,7.4,30.11,SE,135,9.8,15.2,10,0.00,,,0.00,WUHU216HW,2013-04-19 17:20:00,
2013-04-19 10:22:00,65.3,7.4,30.11,SE,135,12.8,15.2,10,0.00,,,0.00,WUHU216HW,2013-04-19 17:22:00,
2013-04-19 10:23:00,65.3,7.4,30.11,SSE,158,8.3,15.2,10,0.00,,,0.00,WUHU216HW,2013-04-19 17:23:00,
2013-04-19 10:25:00,65.5,9.1,30.11,SSE,158,6.9,12.8,11,0.00,,,0.00,WUHU216HW,2013-04-19 17:25:00,
2013-04-19 10:27:00,65.7,7.7,30.11,East,90,8.5,12.8,10,0.00,,,0.00,WUHU216HW,2013-04-19 17:27:00,
2013-04-19 10:28:00,65.7,7.7,30.11,East,90,8.1,12.8,10,0.00,,,0.00,WUHU216HW,2013-04-19 17:28:00,
2013-04-19 10:30:00,65.9,7.8,30.11,SE,135,12.5,12.8,10,0.00,,,0.00,WUHU216HW,2013-04-19 17:30:00,
2013-04-19 10:32:00,66.1,7.9,30.11,East,90,9.4,15.2,10,0.00,,,0.00,WUHU216HW,2013-04-19 17:32:00,
2013-04-19 10:33:00,66.1,7.9,30.11,SSE,158,6.5,15.2,10,0.00,,,0.00,WUHU216HW,2013-04-19 17:33:00,
2013-04-19 10:35:00,66.2,8.1,30.11,SE,135,5.4,15.2,10,0.00,,,0.00,WUHU216HW,2013-04-19 17:35:00,
2013-04-19 10:37:00,66.2,8.1,30.11,SE,135,9.8,15.2,10,0.00,,,0.00,WUHU216HW,2013-04-19 17:37:00,
2013-04-19 10:39:00,66.4,8.3,30.11,East,90,8.5,15.2,10,0.00,,,0.00,WUHU216HW,2013-04-19 17:39:00,
2013-04-19 10:40:00,66.4,8.3,30.11,SSE,158,11.4,15.2,10,0.00,,,0.00,WUHU216HW,2013-04-19 17:40:00,
2013-04-19 10:42:00,66.6,8.4,30.11,SE,135,4.5,13.4,10,0.00,,,0.00,WUHU216HW,2013-04-19 17:42:00,
2013-04-19 10:44:00,66.8,8.6,30.11,ESE,113,5.1,13.4,10,0.00,,,0.00,WUHU216HW,2013-04-19 17:44:00,
2013-04-19 10:45:00,67.0,8.6,30.10,South,180,9.8,13.4,10,0.00,,,0.00,WUHU216HW,2013-04-19 17:45:00,
2013-04-19 10:46:00,67.1,8.8,30.10,SE,135,11.2,13.4,10,0.00,,,0.00,WUHU216HW,2013-04-19 17:46:00,
2013-04-19 10:47:00,67.1,8.8,30.11,SE,135,7.8,12.5,10,0.00,,,0.00,WUHU216HW,2013-04-19 17:47:00,
2013-04-19 10:48:00,67.1,8.8,30.11,SE,135,7.8,12.5,10,0.00,,,0.00,WUHU216HW,2013-04-19 17:48:00,
2013-04-19 10:49:00,67.3,9.0,30.10,SSE,158,4.7,12.5,10,0.00,,,0.00,WUHU216HW,2013-04-19 17:49:00,
2013-04-19 10:50:00,67.3,9.0,30.11,SE,135,3.6,12.5,10,0.00,,,0.00,WUHU216HW,2013-04-19 17:50:00,
2013-04-19 10:51:00,67.3,9.0,30.11,SSE,158,6.7,12.5,10,0.00,,,0.00,WUHU216HW,2013-04-19 17:51:00,
2013-04-19 10:53:00,67.3,9.0,30.11,SE,135,11.2,12.5,10,0.00,,,0.00,WUHU216HW,2013-04-19 17:53:00,
2013-04-19 10:54:00,67.5,9.1,30.11,SE,135,8.7,12.5,9,0.00,,,0.00,WUHU216HW,2013-04-19 17:54:00,
2013-04-19 10:56:00,67.5,9.1,30.11,SE,135,4.5,12.5,10,0.00,,,0.00,WUHU216HW,2013-04-19 17:56:00,
2013-04-19 10:58:00,67.7,9.3,30.10,SE,135,6.7,11.2,10,0.00,,,0.00,WUHU216HW,2013-04-19 17:58:00,
2013-04-19 10:59:00,67.9,9.4,30.10,ESE,113,6.7,11.2,10,0.00,,,0.00,WUHU216HW,2013-04-19 17:59:00,
2013-04-19 11:01:00,68.0,9.5,30.10,ESE,113,5.4,11.2,8,0.00,,,0.00,WUHU216HW,2013-04-19 18:01:00,
2013-04-19 11:02:00,68.0,9.5,30.10,SE,135,6.9,11.2,8,0.00,,,0.00,WUHU216HW,2013-04-19 18:02:00,
2013-04-19 11:03:00,68.4,9.8,30.10,SE,135,10.1,11.0,9,0.00,,,0.00,WUHU216HW,2013-04-19 18:03:00,
2013-04-19 11:04:00,68.4,9.8,30.10,SE,135,4.5,10.1,8,0.00,,,0.00,WUHU216HW,2013-04-19 18:04:00,
2013-04-19 11:06:00,68.4,9.8,30.10,SE,135,7.8,10.1,8,0.00,,,0.00,WUHU216HW,2013-04-19 18:06:00,
2013-04-19 11:07:00,68.6,9.9,30.10,SE,135,7.8,10.1,8,0.00,,,0.00,WUHU216HW,2013-04-19 18:07:00,
2013-04-19 11:08:00,68.4,9.8,30.10,South,180,12.1,12.1,8,0.00,,,0.00,WUHU216HW,2013-04-19 18:08:00,
2013-04-19 11:09:00,68.4,9.8,30.10,SE,135,11.6,13.4,8,0.00,,,0.00,WUHU216HW,2013-04-19 18:09:00,
2013-04-19 11:12:00,68.4,9.8,30.10,East,90,10.1,13.4,8,0.00,,,0.00,WUHU216HW,2013-04-19 18:12:00,
2013-04-19 11:13:00,68.8,10.1,30.10,SE,135,8.3,13.4,8,0.00,,,0.00,WUHU216HW,2013-04-19 18:13:00,
2013-04-19 11:14:00,68.8,10.1,30.10,ESE,113,10.5,13.4,8,0.00,,,0.00,WUHU216HW,2013-04-19 18:14:00,
2013-04-19 11:15:00,68.8,10.1,30.10,East,90,4.3,13.4,8,0.00,,,0.00,WUHU216HW,2013-04-19 18:15:00,
2013-04-19 11:17:00,68.9,10.2,30.10,ENE,68,3.4,13.4,8,0.00,,,0.00,WUHU216HW,2013-04-19 18:17:00,
2013-04-19 11:18:00,69.1,10.3,30.10,NE,45,3.4,13.4,8,0.00,,,0.00,WUHU216HW,2013-04-19 18:18:00,
2013-04-19 11:19:00,69.1,10.3,30.10,ESE,113,1.1,11.6,8,0.00,,,0.00,WUHU216HW,2013-04-19 18:19:00,
2013-04-19 11:20:00,68.9,10.2,30.10,ENE,68,2.5,10.5,8,0.00,,,0.00,WUHU216HW,2013-04-19 18:20:00,
2013-04-19 11:22:00,68.9,10.2,30.10,ESE,113,7.6,10.5,8,0.00,,,0.00,WUHU216HW,2013-04-19 18:22:00,
2013-04-19 11:24:00,69.1,10.3,30.10,SE,135,1.3,10.5,8,0.00,,,0.00,WUHU216HW,2013-04-19 18:24:00,
2013-04-19 11:25:00,69.1,10.3,30.10,East,90,8.9,11.4,8,0.00,,,0.00,WUHU216HW,2013-04-19 18:25:00,
2013-04-19 11:27:00,69.1,10.3,30.10,SSE,158,4.0,11.4,8,0.00,,,0.00,WUHU216HW,2013-04-19 18:27:00,
2013-04-19 11:29:00,69.3,10.5,30.09,ENE,68,3.4,11.4,8,0.00,,,0.00,WUHU216HW,2013-04-19 18:29:00,
2013-04-19 11:30:00,69.5,10.5,30.09,SE,135,7.2,11.4,8,0.00,,,0.00,WUHU216HW,2013-04-19 18:30:00,
2013-04-19 11:32:00,69.5,10.5,30.09,ESE,113,7.6,11.6,8,0.00,,,0.00,WUHU216HW,2013-04-19 18:32:00,
2013-04-19 11:34:00,69.8,10.8,30.09,ENE,68,7.2,11.6,8,0.00,,,0.00,WUHU216HW,2013-04-19 18:34:00,
2013-04-19 11:36:00,69.8,10.8,30.09,ESE,113,4.5,11.6,7,0.00,,,0.00,WUHU216HW,2013-04-19 18:36:00,
2013-04-19 11:37:00,69.7,10.7,30.09,SSW,203,4.7,11.6,8,0.00,,,0.00,WUHU216HW,2013-04-19 18:37:00,
2013-04-19 11:38:00,69.7,10.7,30.09,SSW,203,4.7,11.6,8,0.00,,,0.00,WUHU216HW,2013-04-19 18:38:00,
2013-04-19 11:39:00,69.7,10.7,30.09,ESE,113,4.3,11.6,8,0.00,,,0.00,WUHU216HW,2013-04-19 18:39:00,
2013-04-19 11:41:00,69.8,10.8,30.09,ESE,113,2.0,11.6,8,0.00,,,0.00,WUHU216HW,2013-04-19 18:41:00,
2013-04-19 11:42:00,70.0,11.0,30.09,SSE,158,6.3,9.4,8,0.00,,,0.00,WUHU216HW,2013-04-19 18:42:00,
2013-04-19 11:43:00,70.0,11.0,30.09,SE,135,7.2,9.4,8,0.00,,,0.00,WUHU216HW,2013-04-19 18:43:00,
2013-04-19 11:44:00,70.2,11.1,30.09,SSE,158,10.5,10.5,8,0.00,,,0.00,WUHU216HW,2013-04-19 18:44:00,
2013-04-19 11:46:00,70.4,11.3,30.08,SSE,158,6.5,10.5,8,0.00,,,0.00,WUHU216HW,2013-04-19 18:46:00,
2013-04-19 11:48:00,70.6,11.3,30.08,ESE,113,6.5,10.5,8,0.00,,,0.00,WUHU216HW,2013-04-19 18:48:00,
2013-04-19 11:49:00,70.9,11.7,30.08,SE,135,8.3,10.5,8,0.00,,,0.00,WUHU216HW,2013-04-19 18:49:00,
2013-04-19 11:50:00,70.9,11.7,30.08,ESE,113,10.5,10.5,8,0.00,,,0.00,WUHU216HW,2013-04-19 18:50:00,
2013-04-19 11:51:00,70.9,11.7,30.08,ESE,113,8.5,10.5,8,0.00,,,0.00,WUHU216HW,2013-04-19 18:51:00,
2013-04-19 11:53:00,71.3,12.0,30.08,ESE,113,7.6,10.5,8,0.00,,,0.00,WUHU216HW,2013-04-19 18:53:00,
2013-04-19 11:54:00,71.5,12.1,30.08,ESE,113,7.8,10.5,7,0.00,,,0.00,WUHU216HW,2013-04-19 18:54:00,
2013-04-19 11:55:00,71.5,12.1,30.08,ESE,113,7.8,10.5,7,0.00,,,0.00,WUHU216HW,2013-04-19 18:55:00,
2013-04-19 11:56:00,71.6,12.2,30.08,SE,135,8.9,10.5,7,0.00,,,0.00,WUHU216HW,2013-04-19 18:56:00,
2013-04-19 11:58:00,71.6,12.2,30.08,ESE,113,10.7,10.7,7,0.00,,,0.00,WUHU216HW,2013-04-19 18:58:00,
2013-04-19 11:59:00,71.8,12.4,30.08,East,90,4.3,10.7,7,0.00,,,0.00,WUHU216HW,2013-04-19 18:59:00,
2013-04-19 12:00:00,71.8,12.4,30.08,ENE,68,5.1,10.7,7,0.00,,,0.00,WUHU216HW,2013-04-19 19:00:00,
2013-04-19 12:01:00,71.8,12.4,30.07,East,90,3.8,10.7,7,0.00,,,0.00,WUHU216HW,2013-04-19 19:01:00,
2013-04-19 12:03:00,71.8,12.4,30.07,South,180,11.2,11.2,7,0.00,,,0.00,WUHU216HW,2013-04-19 19:03:00,
2013-04-19 12:04:00,72.0,12.5,30.07,East,90,6.0,11.2,7,0.00,,,0.00,WUHU216HW,2013-04-19 19:04:00,
2013-04-19 12:05:00,72.0,12.5,30.07,East,90,7.8,11.2,7,0.00,,,0.00,WUHU216HW,2013-04-19 19:05:00,
2013-04-19 12:06:00,72.0,12.5,30.07,ENE,68,5.1,11.2,7,0.00,,,0.00,WUHU216HW,2013-04-19 19:06:00,
2013-04-19 12:08:00,72.0,12.5,30.07,East,90,8.9,11.2,7,0.00,,,0.00,WUHU216HW,2013-04-19 19:08:00,
2013-04-19 12:09:00,72.0,12.5,30.07,ENE,68,7.4,11.2,7,0.00,,,0.00,WUHU216HW,2013-04-19 19:09:00,
2013-04-19 12:10:00,72.0,12.5,30.07,ESE,113,7.2,11.2,7,0.00,,,0.00,WUHU216HW,2013-04-19 19:10:00,
2013-04-19 12:11:00,72.0,12.5,30.07,SE,135,9.4,11.2,7,0.00,,,0.00,WUHU216HW,2013-04-19 19:11:00,
2013-04-19 12:13:00,72.0,12.5,30.07,NE,45,5.8,10.5,7,0.00,,,0.00,WUHU216HW,2013-04-19 19:13:00,
2013-04-19 12:14:00,72.2,12.7,30.07,SE,135,9.2,10.5,7,0.00,,,0.00,WUHU216HW,2013-04-19 19:14:00,
2013-04-19 12:15:00,72.4,12.8,30.07,ESE,113,5.4,10.5,7,0.00,,,0.00,WUHU216HW,2013-04-19 19:15:00,
2013-04-19 12:17:00,72.4,12.8,30.06,SE,135,2.7,10.5,7,0.00,,,0.00,WUHU216HW,2013-04-19 19:17:00,
2013-04-19 12:19:00,72.5,13.0,30.06,SSE,158,4.3,10.5,7,0.00,,,0.00,WUHU216HW,2013-04-19 19:19:00,
2013-04-19 12:20:00,72.7,13.2,30.06,SE,135,3.1,10.5,7,0.00,,,0.00,WUHU216HW,2013-04-19 19:20:00,
2013-04-19 12:21:00,72.7,13.2,30.06,SE,135,5.1,10.5,7,0.00,,,0.00,WUHU216HW,2013-04-19 19:21:00,
2013-04-19 12:22:00,73.1,13.4,30.06,ESE,113,12.3,12.3,7,0.00,,,0.00,WUHU216HW,2013-04-19 19:22:00,
2013-04-19 12:24:00,73.3,13.5,30.05,SE,135,6.9,12.3,7,0.00,,,0.00,WUHU216HW,2013-04-19 19:24:00,
2013-04-19 12:25:00,73.3,13.5,30.05,SSE,158,5.8,12.3,7,0.00,,,0.00,WUHU216HW,2013-04-19 19:25:00,
2013-04-19 12:26:00,73.4,13.7,30.05,SSE,158,9.4,12.3,6,0.00,,,0.00,WUHU216HW,2013-04-19 19:26:00,
2013-04-19 12:27:00,73.4,13.7,30.05,SSE,158,8.5,12.3,7,0.00,,,0.00,WUHU216HW,2013-04-19 19:27:00,
2013-04-19 12:29:00,73.6,13.8,30.05,ESE,113,8.9,12.3,7,0.00,,,0.00,WUHU216HW,2013-04-19 19:29:00,
2013-04-19 12:30:00,73.6,13.8,30.05,ESE,113,8.9,12.3,7,0.00,,,0.00,WUHU216HW,2013-04-19 19:30:00,
2013-04-19 12:31:00,73.8,14.0,30.05,SE,135,6.5,12.3,6,0.00,,,0.00,WUHU216HW,2013-04-19 19:31:00,
2013-04-19 12:32:00,73.8,14.0,30.05,SE,135,6.5,9.4,7,0.00,,,0.00,WUHU216HW,2013-04-19 19:32:00,
2013-04-19 12:34:00,74.0,14.0,30.05,ENE,68,7.8,10.5,6,0.00,,,0.00,WUHU216HW,2013-04-19 19:34:00,
2013-04-19 12:35:00,74.0,14.0,30.05,ENE,68,6.7,10.5,6,0.00,,,0.00,WUHU216HW,2013-04-19 19:35:00,
2013-04-19 12:36:00,73.8,14.0,30.05,East,90,7.4,10.5,6,0.00,,,0.00,WUHU216HW,2013-04-19 19:36:00,
2013-04-19 12:37:00,73.8,14.0,30.05,ESE,113,9.2,10.5,6,0.00,,,0.00,WUHU216HW,2013-04-19 19:37:00,
2013-04-19 12:40:00,73.8,14.0,30.05,East,90,6.5,11.4,6,0.00,,,0.00,WUHU216HW,2013-04-19 19:40:00,
2013-04-19 12:41:00,73.8,14.0,30.05,ESE,113,6.9,11.4,6,0.00,,,0.00,WUHU216HW,2013-04-19 19:41:00,
2013-04-19 12:43:00,73.8,14.0,30.05,East,90,4.5,11.4,6,0.00,,,0.00,WUHU216HW,2013-04-19 19:43:00,
2013-04-19 12:45:00,74.2,14.2,30.05,ENE,68,5.4,11.4,6,0.00,,,0.00,WUHU216HW,2013-04-19 19:45:00,
2013-04-19 12:47:00,74.2,14.2,30.06,SSE,158,4.0,11.4,6,0.00,,,0.00,WUHU216HW,2013-04-19 19:47:00,
2013-04-19 12:48:00,74.3,14.3,30.06,SE,135,5.4,10.1,6,0.00,,,0.00,WUHU216HW,2013-04-19 19:48:00,
2013-04-19 12:50:00,74.5,14.4,30.06,ESE,113,3.4,8.3,6,0.00,,,0.00,WUHU216HW,2013-04-19 19:50:00,
2013-04-19 12:51:00,74.5,14.4,30.06,ESE,113,3.4,8.3,6,0.00,,,0.00,WUHU216HW,2013-04-19 19:51:00,
2013-04-19 12:52:00,74.7,14.6,30.06,ESE,113,7.6,8.3,6,0.00,,,0.00,WUHU216HW,2013-04-19 19:52:00,
2013-04-19 12:54:00,74.9,14.7,30.06,ENE,68,8.7,9.2,6,0.00,,,0.00,WUHU216HW,2013-04-19 19:54:00,
2013-04-19 12:55:00,74.7,14.6,30.06,SE,135,11.4,11.4,6,0.00,,,0.00,WUHU216HW,2013-04-19 19:55:00,
2013-04-19 12:56:00,74.9,14.7,30.06,ESE,113,9.2,11.4,6,0.00,,,0.00,WUHU216HW,2013-04-19 19:56:00,
2013-04-19 12:57:00,74.7,14.6,30.06,SE,135,6.3,11.4,6,0.00,,,0.00,WUHU216HW,2013-04-19 19:57:00,
2013-04-19 12:59:00,74.7,14.6,30.06,SSE,158,3.4,11.4,6,0.00,,,0.00,WUHU216HW,2013-04-19 19:59:00,
2013-04-19 13:01:00,74.9,14.7,30.06,ENE,68,8.5,11.4,6,0.00,,,0.00,WUHU216HW,2013-04-19 20:01:00,
2013-04-19 13:02:00,74.9,14.7,30.06,East,90,8.1,11.4,6,0.00,,,0.00,WUHU216HW,2013-04-19 20:02:00,
2013-04-19 13:04:00,74.7,14.6,30.06,ENE,68,6.9,11.4,5,0.00,,,0.00,WUHU216HW,2013-04-19 20:04:00,
2013-04-19 13:06:00,74.5,14.4,30.06,ESE,113,3.4,10.7,6,0.00,,,0.00,WUHU216HW,2013-04-19 20:06:00,
2013-04-19 13:07:00,74.5,14.4,30.06,SE,135,0.9,10.7,6,0.00,,,0.00,WUHU216HW,2013-04-19 20:07:00,
2013-04-19 13:09:00,74.5,14.4,30.06,East,90,6.9,10.7,5,0.00,,,0.00,WUHU216HW,2013-04-19 20:09:00,
2013-04-19 13:11:00,74.3,14.3,30.06,NNE,23,5.6,10.5,5,0.00,,,0.00,WUHU216HW,2013-04-19 20:11:00,
2013-04-19 13:12:00,74.5,14.4,30.06,SE,135,6.7,10.5,5,0.00,,,0.00,WUHU216HW,2013-04-19 20:12:00,
2013-04-19 13:14:00,74.5,14.4,30.06,ENE,68,4.9,10.5,5,0.00,,,0.00,WUHU216HW,2013-04-19 20:14:00,
2013-04-19 13:16:00,74.7,14.6,30.06,SE,135,6.7,10.5,6,0.00,,,0.00,WUHU216HW,2013-04-19 20:16:00,
2013-04-19 13:17:00,74.9,14.7,30.06,SE,135,5.4,10.5,6,0.00,,,0.00,WUHU216HW,2013-04-19 20:17:00,
2013-04-19 13:19:00,75.1,14.9,30.06,NNW,338,1.8,10.5,5,0.00,,,0.00,WUHU216HW,2013-04-19 20:19:00,
2013-04-19 13:21:00,74.7,14.6,30.05,East,90,9.8,11.4,5,0.00,,,0.00,WUHU216HW,2013-04-19 20:21:00,
2013-04-19 13:22:00,74.5,14.4,30.05,ENE,68,7.6,11.4,5,0.00,,,0.00,WUHU216HW,2013-04-19 20:22:00,
2013-04-19 13:25:00,74.5,14.4,30.05,East,90,8.1,11.4,5,0.00,,,0.00,WUHU216HW,2013-04-19 20:25:00,
2013-04-19 13:26:00,74.5,14.4,30.05,ESE,113,6.3,11.4,5,0.00,,,0.00,WUHU216HW,2013-04-19 20:26:00,
2013-04-19 13:27:00,74.5,14.4,30.05,ENE,68,5.4,11.4,5,0.00,,,0.00,WUHU216HW,2013-04-19 20:27:00,
2013-04-19 13:28:00,74.5,14.4,30.05,ENE,68,6.3,11.4,5,0.00,,,0.00,WUHU216HW,2013-04-19 20:28:00,
2013-04-19 13:30:00,74.7,14.6,30.05,East,90,10.5,11.4,5,0.00,,,0.00,WUHU216HW,2013-04-19 20:30:00,
2013-04-19 13:31:00,74.9,14.7,30.05,East,90,8.5,11.4,5,0.00,,,0.00,WUHU216HW,2013-04-19 20:31:00,
2013-04-19 13:32:00,74.9,14.7,30.05,ENE,68,6.3,11.4,5,0.00,,,0.00,WUHU216HW,2013-04-19 20:32:00,
2013-04-19 13:33:00,74.9,14.7,30.05,ENE,68,5.1,11.4,5,0.00,,,0.00,WUHU216HW,2013-04-19 20:33:00,
2013-04-19 13:35:00,74.9,14.7,30.05,East,90,7.2,11.4,5,0.00,,,0.00,WUHU216HW,2013-04-19 20:35:00,
2013-04-19 13:37:00,74.9,14.7,30.05,ENE,68,6.9,11.4,5,0.00,,,0.00,WUHU216HW,2013-04-19 20:37:00,
2013-04-19 13:38:00,74.9,14.7,30.05,NNE,23,3.1,11.4,5,0.00,,,0.00,WUHU216HW,2013-04-19 20:38:00,
2013-04-19 13:41:00,75.2,14.9,30.05,ESE,113,3.8,10.3,5,0.00,,,0.00,WUHU216HW,2013-04-19 20:41:00,
2013-04-19 13:42:00,75.4,15.1,30.05,ENE,68,6.7,8.5,3,0.00,,,0.00,WUHU216HW,2013-04-19 20:42:00,
2013-04-19 13:43:00,75.4,15.1,30.05,NE,45,7.4,10.3,5,0.00,,,0.00,WUHU216HW,2013-04-19 20:43:00,
2013-04-19 13:46:00,75.2,14.9,30.05,East,90,4.0,10.3,3,0.00,,,0.00,WUHU216HW,2013-04-19 20:46:00,
2013-04-19 13:47:00,75.2,14.9,30.04,NNE,23,8.3,10.3,3,0.00,,,0.00,WUHU216HW,2013-04-19 20:47:00,
2013-04-19 13:49:00,75.2,14.9,30.04,ENE,68,7.6,10.3,3,0.00,,,0.00,WUHU216HW,2013-04-19 20:49:00,
2013-04-19 13:52:00,75.2,14.9,30.04,East,90,2.2,10.3,5,0.00,,,0.00,WUHU216HW,2013-04-19 20:52:00,
2013-04-19 13:53:00,75.2,14.9,30.04,East,90,2.9,8.9,5,0.00,,,0.00,WUHU216HW,2013-04-19 20:53:00,
2013-04-19 13:54:00,75.2,14.9,30.04,ESE,113,4.0,8.9,5,0.00,,,0.00,WUHU216HW,2013-04-19 20:54:00,
2013-04-19 13:57:00,75.6,15.2,30.04,ESE,113,8.1,8.9,5,0.00,,,0.00,WUHU216HW,2013-04-19 20:57:00,
2013-04-19 13:58:00,75.8,15.4,30.04,ESE,113,5.8,8.9,5,0.00,,,0.00,WUHU216HW,2013-04-19 20:58:00,
2013-04-19 13:59:00,76.1,15.7,30.03,East,90,8.7,8.9,5,0.00,,,0.00,WUHU216HW,2013-04-19 20:59:00,
2013-04-19 14:02:00,76.3,15.9,30.03,South,180,7.2,10.5,5,0.00,,,0.00,WUHU216HW,2013-04-19 21:02:00,
2013-04-19 14:03:00,76.5,15.9,30.03,South,180,7.2,10.5,5,0.00,,,0.00,WUHU216HW,2013-04-19 21:03:00,
2013-04-19 14:04:00,76.5,15.9,30.03,SE,135,4.5,10.5,5,0.00,,,0.00,WUHU216HW,2013-04-19 21:04:00,
2013-04-19 14:07:00,76.7,16.1,30.03,SSW,203,3.8,10.5,5,0.00,,,0.00,WUHU216HW,2013-04-19 21:07:00,
2013-04-19 14:08:00,76.7,16.1,30.03,SSW,203,3.1,10.5,5,0.00,,,0.00,WUHU216HW,2013-04-19 21:08:00,
2013-04-19 14:09:00,76.7,16.1,30.03,ESE,113,1.6,10.5,5,0.00,,,0.00,WUHU216HW,2013-04-19 21:09:00,
2013-04-19 14:12:00,76.9,16.2,30.03,ESE,113,4.7,7.2,5,0.00,,,0.00,WUHU216HW,2013-04-19 21:12:00,
2013-04-19 14:13:00,76.9,16.2,30.03,ESE,113,8.7,8.7,5,0.00,,,0.00,WUHU216HW,2013-04-19 21:13:00,
2013-04-19 14:14:00,76.9,16.2,30.03,ENE,68,7.4,8.7,5,0.00,,,0.00,WUHU216HW,2013-04-19 21:14:00,
2013-04-19 14:17:00,77.2,16.5,30.03,East,90,3.1,8.7,5,0.00,,,0.00,WUHU216HW,2013-04-19 21:17:00,
2013-04-19 14:18:00,77.2,16.5,30.03,North,0,0.7,8.7,5,0.00,,,0.00,WUHU216HW,2013-04-19 21:18:00,
2013-04-19 14:20:00,77.4,16.7,30.02,ESE,113,6.3,8.7,5,0.00,,,0.00,WUHU216HW,2013-04-19 21:20:00,
2013-04-19 14:22:00,77.4,16.7,30.02,South,180,4.7,8.7,5,0.00,,,0.00,WUHU216HW,2013-04-19 21:22:00,
2013-04-19 14:23:00,77.4,16.7,30.02,SSE,158,1.6,8.3,5,0.00,,,0.00,WUHU216HW,2013-04-19 21:23:00,
2013-04-19 14:24:00,77.4,16.7,30.02,SSW,203,9.8,9.8,3,0.00,,,0.00,WUHU216HW,2013-04-19 21:24:00,
2013-04-19 14:25:00,77.4,16.7,30.02,ENE,68,4.9,9.8,3,0.00,,,0.00,WUHU216HW,2013-04-19 21:25:00,
2013-04-19 14:27:00,77.4,16.7,30.02,ENE,68,8.3,9.8,5,0.00,,,0.00,WUHU216HW,2013-04-19 21:27:00,
2013-04-19 14:28:00,77.2,16.5,30.02,ESE,113,5.8,9.8,5,0.00,,,0.00,WUHU216HW,2013-04-19 21:28:00,
2013-04-19 14:29:00,77.2,16.5,30.02,NE,45,5.1,9.8,5,0.00,,,0.00,WUHU216HW,2013-04-19 21:29:00,
2013-04-19 14:30:00,77.2,16.5,30.02,SW,225,0.4,9.8,5,0.00,,,0.00,WUHU216HW,2013-04-19 21:30:00,
2013-04-19 14:32:00,76.9,16.2,30.02,WSW,248,5.8,9.8,3,0.00,,,0.00,WUHU216HW,2013-04-19 21:32:00,
2013-04-19 14:33:00,76.9,16.2,30.02,West,270,4.7,9.8,3,0.00,,,0.00,WUHU216HW,2013-04-19 21:33:00,
2013-04-19 14:34:00,76.7,16.1,30.02,WSW,248,2.5,8.3,3,0.00,,,0.00,WUHU216HW,2013-04-19 21:34:00,
2013-04-19 14:35:00,76.7,16.1,30.02,West,270,1.8,8.3,3,0.00,,,0.00,WUHU216HW,2013-04-19 21:35:00,
2013-04-19 14:37:00,76.3,15.9,30.02,NW,315,3.1,6.7,3,0.00,,,0.00,WUHU216HW,2013-04-19 21:37:00,
2013-04-19 14:38:00,76.1,15.7,30.02,WSW,248,1.1,6.7,3,0.00,,,0.00,WUHU216HW,2013-04-19 21:38:00,
2013-04-19 14:39:00,76.0,15.5,30.02,WSW,248,1.8,6.7,3,0.00,,,0.00,WUHU216HW,2013-04-19 21:39:00,
2013-04-19 14:40:00,75.8,15.4,30.02,NNW,338,0.9,6.7,3,0.00,,,0.00,WUHU216HW,2013-04-19 21:40:00,
2013-04-19 14:42:00,75.8,15.4,30.01,North,0,0.4,6.7,3,0.00,,,0.00,WUHU216HW,2013-04-19 21:42:00,
2013-04-19 14:44:00,75.8,15.4,30.02,NW,315,0.4,5.4,3,0.00,,,0.00,WUHU216HW,2013-04-19 21:44:00,
2013-04-19 14:45:00,76.0,15.5,30.01,NNW,338,2.0,5.4,5,0.00,,,0.00,WUHU216HW,2013-04-19 21:45:00,
2013-04-19 14:48:00,76.3,15.9,30.01,South,180,4.5,4.5,3,0.00,,,0.00,WUHU216HW,2013-04-19 21:48:00,
2013-04-19 14:49:00,76.3,15.9,30.01,South,180,11.0,11.0,3,0.00,,,0.00,WUHU216HW,2013-04-19 21:49:00,
2013-04-19 14:50:00,76.7,16.1,30.01,SE,135,4.9,11.0,5,0.00,,,0.00,WUHU216HW,2013-04-19 21:50:00,
2013-04-19 14:53:00,77.2,16.5,30.01,SSE,158,2.5,11.0,5,0.00,,,0.00,WUHU216HW,2013-04-19 21:53:00,
2013-04-19 14:54:00,77.4,16.7,30.01,North,0,0.4,11.0,5,0.00,,,0.00,WUHU216HW,2013-04-19 21:54:00,
2013-04-19 14:55:00,77.6,16.7,30.00,ESE,113,6.3,11.0,4,0.00,,,0.00,WUHU216HW,2013-04-19 21:55:00,
2013-04-19 14:58:00,77.9,17.0,30.00,East,90,3.4,11.0,5,0.00,,,0.00,WUHU216HW,2013-04-19 21:58:00,
2013-04-19 14:59:00,78.1,17.1,30.00,SE,135,2.7,9.2,5,0.00,,,0.00,WUHU216HW,2013-04-19 21:59:00,
2013-04-19 15:01:00,78.1,17.1,30.00,SE,135,2.2,9.2,5,0.00,,,0.00,WUHU216HW,2013-04-19 22:01:00,
2013-04-19 15:04:00,78.5,17.4,30.00,NE,45,3.4,9.2,3,0.00,,,0.00,WUHU216HW,2013-04-19 22:04:00,
2013-04-19 15:05:00,78.3,17.3,30.00,NNE,23,7.2,9.2,2,0.00,,,0.00,WUHU216HW,2013-04-19 22:05:00,
2013-04-19 15:06:00,78.1,17.1,30.00,NNE,23,7.6,9.2,3,0.00,,,0.00,WUHU216HW,2013-04-19 22:06:00,
2013-04-19 15:09:00,77.8,16.9,30.00,North,0,4.7,7.6,3,0.00,,,0.00,WUHU216HW,2013-04-19 22:09:00,
2013-04-19 15:10:00,77.6,16.7,30.00,North,0,5.6,7.6,3,0.00,,,0.00,WUHU216HW,2013-04-19 22:10:00,
2013-04-19 15:11:00,77.6,16.7,30.00,North,0,8.1,8.5,3,0.00,,,0.00,WUHU216HW,2013-04-19 22:11:00,
2013-04-19 15:14:00,77.2,16.5,29.99,NW,315,4.5,8.5,2,0.00,,,0.00,WUHU216HW,2013-04-19 22:14:00,
2013-04-19 15:15:00,77.0,16.4,29.99,NE,45,6.3,8.5,3,0.00,,,0.00,WUHU216HW,2013-04-19 22:15:00,
2013-04-19 15:16:00,77.0,16.4,29.99,ENE,68,5.4,8.5,3,0.00,,,0.00,WUHU216HW,2013-04-19 22:16:00,
2013-04-19 15:19:00,77.0,16.4,29.99,North,0,2.7,8.5,3,0.00,,,0.00,WUHU216HW,2013-04-19 22:19:00,
2013-04-19 15:20:00,76.9,16.2,29.99,North,0,4.0,8.5,2,0.00,,,0.00,WUHU216HW,2013-04-19 22:20:00,
2013-04-19 15:21:00,76.9,16.2,29.99,NNW,338,4.0,8.1,2,0.00,,,0.00,WUHU216HW,2013-04-19 22:21:00,
2013-04-19 15:22:00,76.7,16.1,29.99,NW,315,2.0,7.4,2,0.00,,,0.00,WUHU216HW,2013-04-19 22:22:00,
2013-04-19 15:24:00,76.3,15.9,29.99,NE,45,2.9,7.4,2,0.00,,,0.00,WUHU216HW,2013-04-19 22:24:00,
2013-04-19 15:25:00,76.1,15.7,29.99,East,90,1.6,7.4,3,0.00,,,0.00,WUHU216HW,2013-04-19 22:25:00,
2013-04-19 15:26:00,76.1,15.7,29.99,NE,45,4.5,6.3,3,0.00,,,0.00,WUHU216HW,2013-04-19 22:26:00,
2013-04-19 15:27:00,76.3,15.9,29.99,ENE,68,1.3,6.3,2,0.00,,,0.00,WUHU216HW,2013-04-19 22:27:00,
2013-04-19 15:29:00,76.3,15.9,29.99,East,90,0.7,4.9,3,0.00,,,0.00,WUHU216HW,2013-04-19 22:29:00,
2013-04-19 15:30:00,76.5,15.9,29.99,ESE,113,1.6,4.9,3,0.00,,,0.00,WUHU216HW,2013-04-19 22:30:00,
2013-04-19 15:31:00,76.5,15.9,29.99,NNW,338,1.8,4.9,3,0.00,,,0.00,WUHU216HW,2013-04-19 22:31:00,
2013-04-19 15:33:00,76.7,16.1,29.99,NNE,23,6.3,6.3,3,0.00,,,0.00,WUHU216HW,2013-04-19 22:33:00,
2013-04-19 15:34:00,76.7,16.1,29.99,North,0,3.1,6.3,2,0.00,,,0.00,WUHU216HW,2013-04-19 22:34:00,
2013-04-19 15:35:00,76.7,16.1,29.99,NE,45,3.1,6.3,3,0.00,,,0.00,WUHU216HW,2013-04-19 22:35:00,
2013-04-19 15:36:00,76.7,16.1,29.99,NNE,23,6.3,6.3,3,0.00,,,0.00,WUHU216HW,2013-04-19 22:36:00,
2013-04-19 15:38:00,76.7,16.1,29.99,North,0,1.3,6.5,3,0.00,,,0.00,WUHU216HW,2013-04-19 22:38:00,
2013-04-19 15:39:00,76.9,16.2,29.99,ENE,68,3.8,6.5,3,0.00,,,0.00,WUHU216HW,2013-04-19 22:39:00,
2013-04-19 15:40:00,77.0,16.4,29.99,East,90,2.5,6.5,3,0.00,,,0.00,WUHU216HW,2013-04-19 22:40:00,
2013-04-19 15:41:00,77.0,16.4,29.99,ENE,68,2.2,6.5,3,0.00,,,0.00,WUHU216HW,2013-04-19 22:41:00,
2013-04-19 15:43:00,77.4,16.7,29.99,NE,45,1.3,6.5,3,0.00,,,0.00,WUHU216HW,2013-04-19 22:43:00,
2013-04-19 15:44:00,77.8,16.9,29.98,ESE,113,1.1,6.5,3,0.00,,,0.00,WUHU216HW,2013-04-19 22:44:00,
2013-04-19 15:45:00,77.8,16.9,29.98,SSE,158,1.8,6.5,3,0.00,,,0.00,WUHU216HW,2013-04-19 22:45:00,
2013-04-19 15:46:00,77.8,16.9,29.98,ESE,113,1.1,6.5,3,0.00,,,0.00,WUHU216HW,2013-04-19 22:46:00,
2013-04-19 15:48:00,78.1,17.1,29.98,NE,45,3.4,4.0,3,0.00,,,0.00,WUHU216HW,2013-04-19 22:48:00,
2013-04-19 15:50:00,78.5,17.4,29.98,WNW,293,1.6,5.4,3,0.00,,,0.00,WUHU216HW,2013-04-19 22:50:00,
2013-04-19 15:51:00,78.5,17.4,29.98,NE,45,2.2,5.4,2,0.00,,,0.00,WUHU216HW,2013-04-19 22:51:00,
2013-04-19 15:52:00,78.5,17.4,29.98,NNE,23,7.6,7.6,2,0.00,,,0.00,WUHU216HW,2013-04-19 22:52:00,
2013-04-19 15:53:00,78.3,17.3,29.98,NNW,338,4.0,7.6,2,0.00,,,0.00,WUHU216HW,2013-04-19 22:53:00,
2013-04-19 15:55:00,77.9,17.0,29.98,NNE,23,8.1,8.1,2,0.00,,,0.00,WUHU216HW,2013-04-19 22:55:00,
2013-04-19 15:56:00,77.8,16.9,29.98,ENE,68,5.8,8.1,2,0.00,,,0.00,WUHU216HW,2013-04-19 22:56:00,
2013-04-19 15:57:00,77.8,16.9,29.98,NNE,23,8.1,8.1,3,0.00,,,0.00,WUHU216HW,2013-04-19 22:57:00,
2013-04-19 15:58:00,77.8,16.9,29.98,ENE,68,3.8,8.5,3,0.00,,,0.00,WUHU216HW,2013-04-19 22:58:00,
2013-04-19 16:00:00,77.8,16.9,29.98,East,90,6.0,8.5,3,0.00,,,0.00,WUHU216HW,2013-04-19 23:00:00,
2013-04-19 16:01:00,78.1,17.1,29.98,NE,45,3.4,8.5,3,0.00,,,0.00,WUHU216HW,2013-04-19 23:01:00,
2013-04-19 16:02:00,78.1,17.1,29.98,NE,45,5.6,8.5,3,0.00,,,0.00,WUHU216HW,2013-04-19 23:02:00,
2013-04-19 16:03:00,78.3,17.3,29.98,NNE,23,6.3,8.5,3,0.00,,,0.00,WUHU216HW,2013-04-19 23:03:00,
2013-04-19 16:05:00,78.7,17.6,29.98,NNE,23,3.4,8.5,3,0.00,,,0.00,WUHU216HW,2013-04-19 23:05:00,
2013-04-19 16:06:00,78.8,17.6,29.98,North,0,1.3,8.5,3,0.00,,,0.00,WUHU216HW,2013-04-19 23:06:00,
2013-04-19 16:07:00,78.8,17.6,29.98,NE,45,2.2,6.3,2,0.00,,,0.00,WUHU216HW,2013-04-19 23:07:00,
2013-04-19 16:09:00,78.8,17.6,29.98,NW,315,1.8,6.3,3,0.00,,,0.00,WUHU216HW,2013-04-19 23:09:00,
2013-04-19 16:10:00,78.8,17.6,29.97,NW,315,1.8,6.3,3,0.00,,,0.00,WUHU216HW,2013-04-19 23:10:00,
2013-04-19 16:11:00,78.8,17.6,29.98,WSW,248,3.4,6.3,2,0.00,,,0.00,WUHU216HW,2013-04-19 23:11:00,
2013-04-19 16:12:00,78.8,17.6,29.97,West,270,2.9,6.3,2,0.00,,,0.00,WUHU216HW,2013-04-19 23:12:00,
2013-04-19 16:14:00,78.7,17.6,29.97,NNW,338,4.0,6.3,2,0.00,,,0.00,WUHU216HW,2013-04-19 23:14:00,
2013-04-19 16:15:00,78.1,17.1,29.97,WNW,293,3.4,6.3,2,0.00,,,0.00,WUHU216HW,2013-04-19 23:15:00,
2013-04-19 16:16:00,78.1,17.1,29.97,NNW,338,3.4,6.3,2,0.00,,,0.00,WUHU216HW,2013-04-19 23:16:00,
2013-04-19 16:17:00,77.6,16.7,29.97,West,270,1.8,6.3,2,0.00,,,0.00,WUHU216HW,2013-04-19 23:17:00,
2013-04-19 16:19:00,77.4,16.7,29.97,WSW,248,0.4,6.3,2,0.00,,,0.00,WUHU216HW,2013-04-19 23:19:00,
2013-04-19 16:20:00,77.0,16.4,29.97,SE,135,1.1,6.3,2,0.00,,,0.00,WUHU216HW,2013-04-19 23:20:00,
2013-04-19 16:21:00,77.0,16.4,29.97,East,90,0.0,6.3,3,0.00,,,0.00,WUHU216HW,2013-04-19 23:21:00,
2013-04-19 16:23:00,77.0,16.4,29.97,SSE,158,0.2,6.3,3,0.00,,,0.00,WUHU216HW,2013-04-19 23:23:00,
2013-04-19 16:24:00,77.4,16.7,29.97,NNW,338,2.0,5.4,3,0.00,,,0.00,WUHU216HW,2013-04-19 23:24:00,
2013-04-19 16:25:00,77.2,16.5,29.97,NE,45,0.9,3.8,2,0.00,,,0.00,WUHU216HW,2013-04-19 23:25:00,
2013-04-19 16:26:00,77.2,16.5,29.97,West,270,0.4,3.4,3,0.00,,,0.00,WUHU216HW,2013-04-19 23:26:00,
2013-04-19 16:28:00,77.4,16.7,29.97,WSW,248,2.5,3.4,3,0.00,,,0.00,WUHU216HW,2013-04-19 23:28:00,
2013-04-19 16:29:00,77.4,16.7,29.97,WSW,248,2.0,3.4,3,0.00,,,0.00,WUHU216HW,2013-04-19 23:29:00,
2013-04-19 16:30:00,77.6,16.7,29.97,SSW,203,2.2,3.4,3,0.00,,,0.00,WUHU216HW,2013-04-19 23:30:00,
2013-04-19 16:31:00,77.6,16.7,29.97,SSE,158,0.2,3.4,3,0.00,,,0.00,WUHU216HW,2013-04-19 23:31:00,
2013-04-19 16:32:00,77.8,16.9,29.97,SSE,158,3.4,3.4,3,0.00,,,0.00,WUHU216HW,2013-04-19 23:32:00,
2013-04-19 16:33:00,77.9,17.0,29.97,SE,135,1.1,3.4,3,0.00,,,0.00,WUHU216HW,2013-04-19 23:33:00,
2013-04-19 16:34:00,78.1,17.1,29.97,SSE,158,0.4,3.4,3,0.00,,,0.00,WUHU216HW,2013-04-19 23:34:00,
2013-04-19 16:35:00,78.3,17.3,29.97,SE,135,1.8,3.4,3,0.00,,,0.00,WUHU216HW,2013-04-19 23:35:00,
2013-04-19 16:37:00,78.7,17.6,29.97,ESE,113,1.3,3.4,3,0.00,,,0.00,WUHU216HW,2013-04-19 23:37:00,
2013-04-19 16:39:00,79.2,17.9,29.97,SSW,203,0.7,3.4,3,0.00,,,0.00,WUHU216HW,2013-04-19 23:39:00,
2013-04-19 16:41:00,79.6,18.2,29.97,SW,225,0.4,3.4,3,0.00,,,0.00,WUHU216HW,2013-04-19 23:41:00,
2013-04-19 16:42:00,79.6,18.2,29.97,SSW,203,0.9,3.4,3,0.00,,,0.00,WUHU216HW,2013-04-19 23:42:00,
2013-04-19 16:44:00,79.9,18.6,29.97,ESE,113,1.6,3.4,3,0.00,,,0.00,WUHU216HW,2013-04-19 23:44:00,
2013-04-19 16:46:00,80.3,18.8,29.97,ESE,113,1.8,3.8,3,0.00,,,0.00,WUHU216HW,2013-04-19 23:46:00,
2013-04-19 16:47:00,80.3,18.8,29.97,East,90,3.8,4.9,3,0.00,,,0.00,WUHU216HW,2013-04-19 23:47:00,
2013-04-19 16:49:00,80.5,18.9,29.97,East,90,5.8,6.5,3,0.00,,,0.00,WUHU216HW,2013-04-19 23:49:00,
2013-04-19 16:51:00,81.0,19.4,29.97,East,90,2.7,6.5,3,0.00,,,0.00,WUHU216HW,2013-04-19 23:51:00,
2013-04-19 16:52:00,81.4,19.6,29.97,East,90,1.8,6.5,3,0.00,,,0.00,WUHU216HW,2013-04-19 23:52:00,
2013-04-19 16:53:00,81.5,19.8,29.97,ENE,68,2.0,6.5,4,0.00,,,0.00,WUHU216HW,2013-04-19 23:53:00,
2013-04-19 16:54:00,81.7,20.0,29.97,ENE,68,3.4,6.5,3,0.00,,,0.00,WUHU216HW,2013-04-19 23:54:00,
2013-04-19 16:55:00,82.1,20.3,29.96,ENE,68,3.6,6.5,3,0.00,,,0.00,WUHU216HW,2013-04-19 23:55:00,
2013-04-19 16:56:00,82.4,20.5,29.97,ENE,68,1.8,6.5,3,0.00,,,0.00,WUHU216HW,2013-04-19 23:56:00,
2013-04-19 16:57:00,82.4,20.5,29.97,ENE,68,1.1,6.5,3,0.00,,,0.00,WUHU216HW,2013-04-19 23:57:00,
2013-04-19 16:58:00,82.4,20.5,29.97,East,90,1.8,6.5,3,0.00,,,0.00,WUHU216HW,2013-04-19 23:58:00,
2013-04-19 16:59:00,82.8,20.8,29.97,ENE,68,0.0,5.4,3,0.00,,,0.00,WUHU216HW,2013-04-19 23:59:00,
2013-04-19 17:00:00,82.8,20.8,29.96,WNW,293,0.0,3.6,3,0.00,,,0.00,WUHU216HW,2013-04-20 00:00:00,
2013-04-19 17:02:00,83.0,20.9,29.97,NNE,23,0.0,3.6,3,0.00,,,0.00,WUHU216HW,2013-04-20 00:02:00,
2013-04-19 17:03:00,83.2,21.1,29.96,North,0,0.0,3.6,3,0.00,,,0.00,WUHU216HW,2013-04-20 00:03:00,
2013-04-19 17:04:00,83.3,21.2,29.97,NNE,23,0.4,3.6,3,0.00,,,0.00,WUHU216HW,2013-04-20 00:04:00,
2013-04-19 17:06:00,83.5,21.2,29.96,NNE,23,1.3,2.5,3,0.00,,,0.00,WUHU216HW,2013-04-20 00:06:00,
2013-04-19 17:07:00,83.5,21.2,29.96,NNW,338,1.8,2.0,2,0.00,,,0.00,WUHU216HW,2013-04-20 00:07:00,
2013-04-19 17:08:00,83.7,21.4,29.96,NW,315,1.1,2.0,2,0.00,,,0.00,WUHU216HW,2013-04-20 00:08:00,
2013-04-19 17:09:00,83.7,21.4,29.96,NE,45,1.8,3.1,2,0.00,,,0.00,WUHU216HW,2013-04-20 00:09:00,
2013-04-19 17:11:00,83.7,21.4,29.96,East,90,3.4,3.4,3,0.00,,,0.00,WUHU216HW,2013-04-20 00:11:00,
2013-04-19 17:12:00,83.9,21.5,29.96,ENE,68,4.3,4.3,3,0.00,,,0.00,WUHU216HW,2013-04-20 00:12:00,
2013-04-19 17:13:00,83.9,21.5,29.96,NE,45,2.5,4.3,3,0.00,,,0.00,WUHU216HW,2013-04-20 00:13:00,
2013-04-19 17:14:00,83.9,21.5,29.96,NNE,23,2.9,4.3,3,0.00,,,0.00,WUHU216HW,2013-04-20 00:14:00,
2013-04-19 17:17:00,84.2,21.8,29.96,NNW,338,2.7,4.5,2,0.00,,,0.00,WUHU216HW,2013-04-20 00:17:00,
2013-04-19 17:18:00,84.4,22.0,29.96,NW,315,3.4,4.5,2,0.00,,,0.00,WUHU216HW,2013-04-20 00:18:00,
2013-04-19 17:19:00,84.6,22.1,29.96,NNW,338,4.0,5.8,2,0.00,,,0.00,WUHU216HW,2013-04-20 00:19:00,
2013-04-19 17:22:00,83.9,21.5,29.96,NW,315,4.5,5.8,1,0.00,,,0.00,WUHU216HW,2013-04-20 00:22:00,
2013-04-19 17:23:00,83.5,21.2,29.96,NNW,338,3.8,5.8,1,0.00,,,0.00,WUHU216HW,2013-04-20 00:23:00,
2013-04-19 17:25:00,83.2,21.1,29.96,NW,315,2.7,5.8,2,0.00,,,0.00,WUHU216HW,2013-04-20 00:25:00,
2013-04-19 17:27:00,83.0,20.9,29.96,WNW,293,4.0,5.8,2,0.00,,,0.00,WUHU216HW,2013-04-20 00:27:00,
2013-04-19 17:28:00,83.2,21.1,29.96,NNW,338,1.1,5.8,2,0.00,,,0.00,WUHU216HW,2013-04-20 00:28:00,
2013-04-19 17:30:00,83.2,21.1,29.96,NNW,338,1.1,5.4,2,0.00,,,0.00,WUHU216HW,2013-04-20 00:30:00,
2013-04-19 17:32:00,83.9,21.5,29.96,SW,225,1.3,4.5,2,0.00,,,0.00,WUHU216HW,2013-04-20 00:32:00,
2013-04-19 17:33:00,84.1,21.7,29.96,SW,225,0.4,4.0,2,0.00,,,0.00,WUHU216HW,2013-04-20 00:33:00,
2013-04-19 17:34:00,84.2,21.8,29.96,SSE,158,1.8,4.0,2,0.00,,,0.00,WUHU216HW,2013-04-20 00:34:00,
2013-04-19 17:35:00,84.6,22.1,29.96,SSE,158,0.7,4.0,2,0.00,,,0.00,WUHU216HW,2013-04-20 00:35:00,
2013-04-19 17:37:00,85.3,22.7,29.96,East,90,4.3,4.3,2,0.00,,,0.00,WUHU216HW,2013-04-20 00:37:00,
2013-04-19 17:39:00,85.9,23.0,29.96,East,90,2.0,4.3,2,0.00,,,0.00,WUHU216HW,2013-04-20 00:39:00,
2013-04-19 17:40:00,86.2,23.4,29.96,ENE,68,3.6,4.3,2,0.00,,,0.00,WUHU216HW,2013-04-20 00:40:00,
2013-04-19 17:43:00,86.9,23.9,29.96,SW,225,0.0,4.3,2,0.00,,,0.00,WUHU216HW,2013-04-20 00:43:00,
2013-04-19 17:44:00,87.1,24.1,29.96,South,180,4.5,4.7,2,0.00,,,0.00,WUHU216HW,2013-04-20 00:44:00,
2013-04-19 17:45:00,87.3,24.2,29.96,South,180,2.5,4.7,2,0.00,,,0.00,WUHU216HW,2013-04-20 00:45:00,
2013-04-19 17:48:00,87.3,24.2,29.96,South,180,4.7,6.0,2,0.00,,,0.00,WUHU216HW,2013-04-20 00:48:00,
2013-04-19 17:49:00,87.1,24.1,29.96,SE,135,5.1,6.0,2,0.00,,,0.00,WUHU216HW,2013-04-20 00:49:00,
2013-04-19 17:50:00,86.8,23.8,29.96,SSE,158,2.7,6.0,2,0.00,,,0.00,WUHU216HW,2013-04-20 00:50:00,
2013-04-19 17:53:00,86.2,23.4,29.96,SE,135,3.6,6.0,2,0.00,,,0.00,WUHU216HW,2013-04-20 00:53:00,
2013-04-19 17:54:00,86.0,23.2,29.95,SE,135,2.7,6.0,2,0.00,,,0.00,WUHU216HW,2013-04-20 00:54:00,
2013-04-19 17:55:00,85.9,23.0,29.95,South,180,3.6,6.0,2,0.00,,,0.00,WUHU216HW,2013-04-20 00:55:00,
2013-04-19 17:58:00,85.5,22.8,29.95,SSE,158,3.6,5.1,2,0.00,,,0.00,WUHU216HW,2013-04-20 00:58:00,
2013-04-19 17:59:00,85.3,22.7,29.95,ESE,113,2.7,4.0,2,0.00,,,0.00,WUHU216HW,2013-04-20 00:59:00,
2013-04-19 18:00:00,85.3,22.7,29.95,SE,135,1.1,4.0,2,0.00,,,0.00,WUHU216HW,2013-04-20 01:00:00,
2013-04-19 18:01:00,85.1,22.5,29.95,SSE,158,1.8,4.0,2,0.00,,,0.00,WUHU216HW,2013-04-20 01:01:00,
2013-04-19 18:03:00,84.6,22.1,29.95,South,180,2.2,4.0,2,0.00,,,0.00,WUHU216HW,2013-04-20 01:03:00,
2013-04-19 18:04:00,84.6,22.1,29.95,SSE,158,3.6,4.0,2,0.00,,,0.00,WUHU216HW,2013-04-20 01:04:00,
2013-04-19 18:05:00,84.4,22.0,29.95,SSE,158,2.2,4.0,2,0.00,,,0.00,WUHU216HW,2013-04-20 01:05:00,
2013-04-19 18:06:00,84.2,21.8,29.95,SSE,158,2.0,4.0,2,0.00,,,0.00,WUHU216HW,2013-04-20 01:06:00,
2013-04-19 18:08:00,83.9,21.5,29.95,SSE,158,2.5,4.0,2,0.00,,,0.00,WUHU216HW,2013-04-20 01:08:00,
2013-04-19 18:09:00,83.7,21.4,29.95,SE,135,1.8,3.8,2,0.00,,,0.00,WUHU216HW,2013-04-20 01:09:00,
2013-04-19 18:10:00,83.5,21.2,29.95,SSE,158,1.8,3.6,2,0.00,,,0.00,WUHU216HW,2013-04-20 01:10:00,
2013-04-19 18:11:00,83.3,21.2,29.95,SSE,158,3.1,3.6,2,0.00,,,0.00,WUHU216HW,2013-04-20 01:11:00,
2013-04-19 18:13:00,82.8,20.8,29.95,South,180,2.9,3.6,2,0.00,,,0.00,WUHU216HW,2013-04-20 01:13:00,
2013-04-19 18:14:00,82.6,20.6,29.95,South,180,2.9,3.4,2,0.00,,,0.00,WUHU216HW,2013-04-20 01:14:00,
2013-04-19 18:15:00,82.4,20.5,29.95,SSW,203,2.5,3.4,2,0.00,,,0.00,WUHU216HW,2013-04-20 01:15:00,
2013-04-19 18:16:00,82.1,20.3,29.95,SW,225,1.1,3.4,2,0.00,,,0.00,WUHU216HW,2013-04-20 01:16:00,
2013-04-19 18:18:00,81.7,20.0,29.95,South,180,2.0,3.1,2,0.00,,,0.00,WUHU216HW,2013-04-20 01:18:00,
2013-04-19 18:19:00,81.5,19.8,29.95,SSW,203,1.1,3.1,2,0.00,,,0.00,WUHU216HW,2013-04-20 01:19:00,
2013-04-19 18:20:00,81.2,19.5,29.96,SW,225,0.4,3.1,3,0.00,,,0.00,WUHU216HW,2013-04-20 01:20:00,
2013-04-19 18:21:00,81.0,19.4,29.95,SW,225,0.7,2.9,3,0.00,,,0.00,WUHU216HW,2013-04-20 01:21:00,
2013-04-19 18:23:00,80.6,19.1,29.96,SW,225,1.1,2.9,3,0.00,,,0.00,WUHU216HW,2013-04-20 01:23:00,
2013-04-19 18:25:00,80.3,18.8,29.96,SSW,203,0.9,2.5,3,0.00,,,0.00,WUHU216HW,2013-04-20 01:25:00,
2013-04-19 18:26:00,79.9,18.6,29.96,SW,225,2.0,2.0,3,0.00,,,0.00,WUHU216HW,2013-04-20 01:26:00,
2013-04-19 18:28:00,79.4,18.1,29.95,SSW,203,2.2,2.2,3,0.00,,,0.00,WUHU216HW,2013-04-20 01:28:00,
2013-04-19 18:30:00,79.0,17.8,29.95,SSW,203,2.0,3.1,3,0.00,,,0.00,WUHU216HW,2013-04-20 01:30:00,
2013-04-19 18:31:00,78.7,17.6,29.95,SSW,203,1.6,3.1,3,0.00,,,0.00,WUHU216HW,2013-04-20 01:31:00,
2013-04-19 18:34:00,78.1,17.1,29.96,SW,225,1.8,3.1,3,0.00,,,0.00,WUHU216HW,2013-04-20 01:34:00,
2013-04-19 18:35:00,77.8,16.9,29.95,SSW,203,1.8,3.1,3,0.00,,,0.00,WUHU216HW,2013-04-20 01:35:00,
2013-04-19 18:36:00,77.4,16.7,29.95,SSW,203,2.5,3.1,3,0.00,,,0.00,WUHU216HW,2013-04-20 01:36:00,
2013-04-19 18:39:00,76.3,15.9,29.95,SW,225,2.5,3.1,3,0.00,,,0.00,WUHU216HW,2013-04-20 01:39:00,
2013-04-19 18:40:00,76.0,15.5,29.95,WSW,248,2.0,2.7,3,0.00,,,0.00,WUHU216HW,2013-04-20 01:40:00,
2013-04-19 18:41:00,75.8,15.4,29.95,WSW,248,2.5,2.7,3,0.00,,,0.00,WUHU216HW,2013-04-20 01:41:00,
2013-04-19 18:42:00,75.4,15.1,29.95,WSW,248,2.5,2.9,3,0.00,,,0.00,WUHU216HW,2013-04-20 01:42:00,
2013-04-19 18:44:00,74.5,14.4,29.96,SW,225,2.5,3.6,5,0.00,,,0.00,WUHU216HW,2013-04-20 01:44:00,
2013-04-19 18:46:00,73.8,14.0,29.95,SW,225,3.4,3.6,5,0.00,,,0.00,WUHU216HW,2013-04-20 01:46:00,
2013-04-19 18:47:00,73.4,13.7,29.96,SW,225,2.5,3.6,5,0.00,,,0.00,WUHU216HW,2013-04-20 01:47:00,
2013-04-19 18:49:00,72.5,13.0,29.96,WSW,248,3.4,3.6,5,0.00,,,0.00,WUHU216HW,2013-04-20 01:49:00,
2013-04-19 18:51:00,71.8,12.4,29.95,WSW,248,3.4,3.8,5,0.00,,,0.00,WUHU216HW,2013-04-20 01:51:00,
2013-04-19 18:52:00,71.6,12.2,29.95,WSW,248,2.5,3.8,5,0.00,,,0.00,WUHU216HW,2013-04-20 01:52:00,
2013-04-19 18:54:00,70.7,11.5,29.95,WSW,248,4.0,4.0,5,0.00,,,0.00,WUHU216HW,2013-04-20 01:54:00,
2013-04-19 18:56:00,69.8,10.8,29.95,SW,225,3.1,4.3,6,0.00,,,0.00,WUHU216HW,2013-04-20 01:56:00,
2013-04-19 18:57:00,69.8,10.8,29.95,SW,225,3.4,4.3,6,0.00,,,0.00,WUHU216HW,2013-04-20 01:57:00,
2013-04-19 18:59:00,69.1,10.3,29.96,SW,225,4.5,4.5,6,0.00,,,0.00,WUHU216HW,2013-04-20 01:59:00,
2013-04-19 19:01:00,68.8,10.1,29.96,WSW,248,3.8,4.9,6,0.00,,,0.00,WUHU216HW,2013-04-20 02:01:00,
2013-04-19 19:02:00,68.6,9.9,29.96,WSW,248,3.4,4.9,6,0.00,,,0.00,WUHU216HW,2013-04-20 02:02:00,
2013-04-19 19:03:00,68.4,9.8,29.96,SW,225,3.8,4.9,6,0.00,,,0.00,WUHU216HW,2013-04-20 02:03:00,
2013-04-19 19:05:00,68.0,9.5,29.95,WSW,248,3.6,4.9,6,0.00,,,0.00,WUHU216HW,2013-04-20 02:05:00,
2013-04-19 19:07:00,67.7,9.3,29.96,SW,225,4.3,5.1,6,0.00,,,0.00,WUHU216HW,2013-04-20 02:07:00,
2013-04-19 19:08:00,67.5,9.1,29.95,SW,225,4.7,5.1,6,0.00,,,0.00,WUHU216HW,2013-04-20 02:08:00,
2013-04-19 19:10:00,67.1,8.8,29.95,WSW,248,4.7,5.4,6,0.00,,,0.00,WUHU216HW,2013-04-20 02:10:00,
2013-04-19 19:12:00,67.0,8.6,29.95,WSW,248,4.3,5.4,6,0.00,,,0.00,WUHU216HW,2013-04-20 02:12:00,
2013-04-19 19:13:00,66.8,8.6,29.95,SW,225,3.8,5.4,6,0.00,,,0.00,WUHU216HW,2013-04-20 02:13:00,
2013-04-19 19:15:00,66.6,8.4,29.95,SW,225,3.4,5.4,7,0.00,,,0.00,WUHU216HW,2013-04-20 02:15:00,
2013-04-19 19:17:00,66.2,8.1,29.95,SW,225,4.5,5.4,7,0.00,,,0.00,WUHU216HW,2013-04-20 02:17:00,
2013-04-19 19:18:00,66.1,7.9,29.95,SW,225,4.5,5.4,7,0.00,,,0.00,WUHU216HW,2013-04-20 02:18:00,
2013-04-19 19:20:00,65.5,7.6,29.95,SW,225,4.3,4.7,7,0.00,,,0.00,WUHU216HW,2013-04-20 02:20:00,
2013-04-19 19:22:00,65.3,7.4,29.96,SW,225,4.9,5.1,7,0.00,,,0.00,WUHU216HW,2013-04-20 02:22:00,
2013-04-19 19:23:00,65.2,7.2,29.95,SW,225,4.0,5.1,7,0.00,,,0.00,WUHU216HW,2013-04-20 02:23:00,
2013-04-19 19:25:00,64.8,6.9,29.95,SW,225,3.1,5.1,7,0.00,,,0.00,WUHU216HW,2013-04-20 02:25:00,
2013-04-19 19:27:00,64.6,6.9,29.95,SW,225,4.0,5.1,7,0.00,,,0.00,WUHU216HW,2013-04-20 02:27:00,
2013-04-19 19:28:00,64.4,6.7,29.95,WSW,248,5.4,5.4,7,0.00,,,0.00,WUHU216HW,2013-04-20 02:28:00,
2013-04-19 19:29:00,64.4,6.7,29.95,SW,225,4.5,5.4,7,0.00,,,0.00,WUHU216HW,2013-04-20 02:29:00,
2013-04-19 19:30:00,64.3,6.6,29.95,WSW,248,4.5,5.4,7,0.00,,,0.00,WUHU216HW,2013-04-20 02:30:00,
2013-04-19 19:33:00,64.1,6.4,29.95,WSW,248,5.1,5.4,7,0.00,,,0.00,WUHU216HW,2013-04-20 02:33:00,
2013-04-19 19:34:00,63.9,6.3,29.96,WSW,248,5.4,5.8,7,0.00,,,0.00,WUHU216HW,2013-04-20 02:34:00,
2013-04-19 19:35:00,63.7,6.1,29.96,SW,225,4.9,5.8,7,0.00,,,0.00,WUHU216HW,2013-04-20 02:35:00,
2013-04-19 19:38:00,63.5,6.0,29.96,SW,225,4.5,6.0,7,0.00,,,0.00,WUHU216HW,2013-04-20 02:38:00,
2013-04-19 19:39:00,63.5,6.0,29.96,WSW,248,5.4,6.5,7,0.00,,,0.00,WUHU216HW,2013-04-20 02:39:00,
2013-04-19 19:40:00,63.4,6.0,29.96,WSW,248,4.7,6.5,7,0.00,,,0.00,WUHU216HW,2013-04-20 02:40:00,
2013-04-19 19:41:00,63.2,5.8,29.96,SW,225,4.7,6.5,7,0.00,,,0.00,WUHU216HW,2013-04-20 02:41:00,
2013-04-19 19:43:00,63.0,5.7,29.95,WSW,248,3.8,6.5,7,0.00,,,0.00,WUHU216HW,2013-04-20 02:43:00,
2013-04-19 19:44:00,63.0,5.7,29.95,WSW,248,4.0,6.5,7,0.00,,,0.00,WUHU216HW,2013-04-20 02:44:00,
2013-04-19 19:45:00,62.8,5.5,29.95,WSW,248,4.5,6.5,7,0.00,,,0.00,WUHU216HW,2013-04-20 02:45:00,
2013-04-19 19:46:00,62.6,5.4,29.95,SW,225,5.4,6.5,7,0.00,,,0.00,WUHU216HW,2013-04-20 02:46:00,
2013-04-19 19:48:00,62.5,5.2,29.96,WSW,248,5.4,6.5,7,0.00,,,0.00,WUHU216HW,2013-04-20 02:48:00,
2013-04-19 19:49:00,62.3,5.1,29.96,SW,225,5.4,6.0,8,0.00,,,0.00,WUHU216HW,2013-04-20 02:49:00,
2013-04-19 19:50:00,62.3,5.1,29.95,WSW,248,4.7,6.0,8,0.00,,,0.00,WUHU216HW,2013-04-20 02:50:00,
2013-04-19 19:51:00,62.1,5.0,29.96,SW,225,5.1,6.5,8,0.00,,,0.00,WUHU216HW,2013-04-20 02:51:00,
2013-04-19 19:53:00,61.9,4.9,29.96,SW,225,4.5,6.5,8,0.00,,,0.00,WUHU216HW,2013-04-20 02:53:00,
2013-04-19 19:54:00,61.9,4.9,29.96,SW,225,5.6,6.5,8,0.00,,,0.00,WUHU216HW,2013-04-20 02:54:00,
2013-04-19 19:55:00,61.7,4.7,29.96,SW,225,5.4,6.5,8,0.00,,,0.00,WUHU216HW,2013-04-20 02:55:00,
2013-04-19 19:56:00,61.6,4.5,29.96,SW,225,4.3,6.5,8,0.00,,,0.00,WUHU216HW,2013-04-20 02:56:00,
2013-04-19 19:58:00,61.6,4.5,29.96,SW,225,4.7,6.5,8,0.00,,,0.00,WUHU216HW,2013-04-20 02:58:00,
2013-04-19 19:59:00,61.6,4.5,29.96,SW,225,6.7,6.7,8,0.00,,,0.00,WUHU216HW,2013-04-20 02:59:00,
2013-04-19 20:00:00,61.4,4.4,29.96,WSW,248,5.4,6.7,8,0.00,,,0.00,WUHU216HW,2013-04-20 03:00:00,
2013-04-19 20:02:00,61.4,4.4,29.96,WSW,248,6.0,6.7,8,0.00,,,0.00,WUHU216HW,2013-04-20 03:02:00,
2013-04-19 20:03:00,61.2,4.2,29.96,WSW,248,5.4,6.7,8,0.00,,,0.00,WUHU216HW,2013-04-20 03:03:00,
2013-04-19 20:04:00,61.2,4.2,29.96,WSW,248,6.5,6.7,8,0.00,,,0.00,WUHU216HW,2013-04-20 03:04:00,
2013-04-19 20:05:00,61.2,4.2,29.96,SW,225,4.7,6.7,8,0.00,,,0.00,WUHU216HW,2013-04-20 03:05:00,
2013-04-19 20:07:00,61.0,4.2,29.96,SW,225,4.7,6.7,8,0.00,,,0.00,WUHU216HW,2013-04-20 03:07:00,
2013-04-19 20:08:00,61.0,4.2,29.96,WSW,248,4.7,6.7,8,0.00,,,0.00,WUHU216HW,2013-04-20 03:08:00,
2013-04-19 20:09:00,61.0,4.2,29.96,SW,225,3.4,6.7,8,0.00,,,0.00,WUHU216HW,2013-04-20 03:09:00,
2013-04-19 20:10:00,60.8,4.0,29.96,SW,225,4.7,6.5,8,0.00,,,0.00,WUHU216HW,2013-04-20 03:10:00,
2013-04-19 20:12:00,60.8,4.0,29.96,West,270,6.0,6.5,8,0.00,,,0.00,WUHU216HW,2013-04-20 03:12:00,
2013-04-19 20:13:00,60.8,4.0,29.96,WSW,248,6.3,6.5,8,0.00,,,0.00,WUHU216HW,2013-04-20 03:13:00,
2013-04-19 20:14:00,60.8,4.0,29.96,WSW,248,6.3,6.3,8,0.00,,,0.00,WUHU216HW,2013-04-20 03:14:00,
2013-04-19 20:15:00,60.8,4.0,29.96,SW,225,6.3,6.3,8,0.00,,,0.00,WUHU216HW,2013-04-20 03:15:00,
2013-04-19 20:16:00,60.7,3.8,29.96,SW,225,4.7,6.5,8,0.00,,,0.00,WUHU216HW,2013-04-20 03:16:00,
2013-04-19 20:17:00,60.7,3.8,29.96,WSW,248,6.3,6.9,8,0.00,,,0.00,WUHU216HW,2013-04-20 03:17:00,
2013-04-19 20:19:00,60.7,3.8,29.96,SW,225,6.5,7.2,8,0.00,,,0.00,WUHU216HW,2013-04-20 03:19:00,
2013-04-19 20:20:00,60.7,3.8,29.97,WSW,248,6.9,7.2,8,0.00,,,0.00,WUHU216HW,2013-04-20 03:20:00,
2013-04-19 20:21:00,60.7,3.8,29.97,WSW,248,6.9,7.2,8,0.00,,,0.00,WUHU216HW,2013-04-20 03:21:00,
2013-04-19 20:22:00,60.5,3.7,29.96,WSW,248,4.0,7.2,8,0.00,,,0.00,WUHU216HW,2013-04-20 03:22:00,
2013-04-19 20:24:00,60.5,3.7,29.97,WSW,248,4.7,7.2,8,0.00,,,0.00,WUHU216HW,2013-04-20 03:24:00,
2013-04-19 20:25:00,60.5,3.7,29.97,WSW,248,4.7,7.2,8,0.00,,,0.00,WUHU216HW,2013-04-20 03:25:00,
2013-04-19 20:26:00,60.3,3.5,29.97,West,270,4.9,7.2,8,0.00,,,0.00,WUHU216HW,2013-04-20 03:26:00,
2013-04-19 20:27:00,60.3,3.5,29.96,WSW,248,6.5,7.2,8,0.00,,,0.00,WUHU216HW,2013-04-20 03:27:00,
2013-04-19 20:29:00,60.1,3.4,29.97,West,270,6.5,7.4,9,0.00,,,0.00,WUHU216HW,2013-04-20 03:29:00,
2013-04-19 20:30:00,59.9,3.2,29.97,West,270,6.5,7.4,9,0.00,,,0.00,WUHU216HW,2013-04-20 03:30:00,
2013-04-19 20:31:00,59.8,3.1,29.97,WSW,248,6.5,7.4,10,0.00,,,0.00,WUHU216HW,2013-04-20 03:31:00,
2013-04-19 20:32:00,59.4,2.8,29.97,WSW,248,6.9,7.6,10,0.00,,,0.00,WUHU216HW,2013-04-20 03:32:00,
2013-04-19 20:34:00,59.0,2.5,29.97,West,270,6.9,7.6,10,0.00,,,0.00,WUHU216HW,2013-04-20 03:34:00,
2013-04-19 20:35:00,59.0,2.5,29.97,West,270,5.1,7.6,10,0.00,,,0.00,WUHU216HW,2013-04-20 03:35:00,
2013-04-19 20:36:00,58.9,2.3,29.97,WSW,248,5.4,7.6,10,0.00,,,0.00,WUHU216HW,2013-04-20 03:36:00,
2013-04-19 20:38:00,58.7,2.3,29.97,WSW,248,6.0,7.6,10,0.00,,,0.00,WUHU216HW,2013-04-20 03:38:00,
2013-04-19 20:40:00,58.7,2.3,29.97,West,270,5.6,7.6,10,0.00,,,0.00,WUHU216HW,2013-04-20 03:40:00,
2013-04-19 20:41:00,58.7,2.3,29.97,West,270,4.5,7.6,10,0.00,,,0.00,WUHU216HW,2013-04-20 03:41:00,
2013-04-19 20:43:00,58.7,2.3,29.97,West,270,7.6,7.6,10,0.00,,,0.00,WUHU216HW,2013-04-20 03:43:00,
2013-04-19 20:45:00,58.7,2.3,29.97,WSW,248,6.3,7.6,10,0.00,,,0.00,WUHU216HW,2013-04-20 03:45:00,
2013-04-19 20:46:00,58.7,2.3,29.97,WSW,248,6.9,7.6,10,0.00,,,0.00,WUHU216HW,2013-04-20 03:46:00,
2013-04-19 20:48:00,58.7,2.3,29.97,West,270,6.9,7.6,10,0.00,,,0.00,WUHU216HW,2013-04-20 03:48:00,
2013-04-19 20:50:00,58.7,2.3,29.97,WSW,248,6.5,7.6,10,0.00,,,0.00,WUHU216HW,2013-04-20 03:50:00,
2013-04-19 20:51:00,58.7,2.3,29.97,West,270,5.6,7.6,10,0.00,,,0.00,WUHU216HW,2013-04-20 03:51:00,
2013-04-19 20:53:00,58.7,2.3,29.97,WSW,248,5.8,7.6,10,0.00,,,0.00,WUHU216HW,2013-04-20 03:53:00,
2013-04-19 20:55:00,58.5,2.1,29.97,WSW,248,5.4,7.6,10,0.00,,,0.00,WUHU216HW,2013-04-20 03:55:00,
2013-04-19 20:56:00,58.5,2.1,29.97,WSW,248,5.4,7.6,10,0.00,,,0.00,WUHU216HW,2013-04-20 03:56:00,
2013-04-19 20:57:00,58.5,2.1,29.97,WSW,248,5.6,7.6,10,0.00,,,0.00,WUHU216HW,2013-04-20 03:57:00,
2013-04-19 20:58:00,58.3,2.0,29.97,West,270,5.4,7.6,10,0.00,,,0.00,WUHU216HW,2013-04-20 03:58:00,
2013-04-19 21:01:00,58.1,1.8,29.97,WSW,248,4.9,6.9,10,0.00,,,0.00,WUHU216HW,2013-04-20 04:01:00,
2013-04-19 21:06:00,58.1,1.8,29.97,WSW,248,4.7,6.9,10,0.00,,,0.00,WUHU216HW,2013-04-20 04:06:00,
2013-04-19 21:11:00,58.1,1.8,29.97,WSW,248,4.7,6.7,10,0.00,,,0.00,WUHU216HW,2013-04-20 04:11:00,
2013-04-19 21:12:00,58.1,1.8,29.97,WSW,248,5.4,6.7,10,0.00,,,0.00,WUHU216HW,2013-04-20 04:12:00,
2013-04-19 21:16:00,57.8,1.5,29.97,WSW,248,5.4,6.3,10,0.00,,,0.00,WUHU216HW,2013-04-20 04:16:00,
2013-04-19 21:17:00,57.8,1.5,29.97,WSW,248,4.3,5.8,10,0.00,,,0.00,WUHU216HW,2013-04-20 04:17:00,
2013-04-19 21:21:00,57.2,1.1,29.97,WSW,248,5.6,6.3,10,0.00,,,0.00,WUHU216HW,2013-04-20 04:21:00,
2013-04-19 21:22:00,57.2,1.1,29.97,WSW,248,5.6,6.3,10,0.00,,,0.00,WUHU216HW,2013-04-20 04:22:00,
2013-04-19 21:26:00,56.9,0.8,29.97,WSW,248,5.4,6.9,10,0.00,,,0.00,WUHU216HW,2013-04-20 04:26:00,
2013-04-19 21:27:00,56.9,0.8,29.97,West,270,5.4,6.9,10,0.00,,,0.00,WUHU216HW,2013-04-20 04:27:00,
2013-04-19 21:28:00,56.9,0.8,29.97,West,270,5.4,6.9,10,0.00,,,0.00,WUHU216HW,2013-04-20 04:28:00,
2013-04-19 21:31:00,56.5,0.5,29.97,WSW,248,4.7,6.9,10,0.00,,,0.00,WUHU216HW,2013-04-20 04:31:00,
2013-04-19 21:32:00,56.5,0.5,29.97,WSW,248,4.7,6.9,10,0.00,,,0.00,WUHU216HW,2013-04-20 04:32:00,
2013-04-19 21:33:00,56.5,0.5,29.97,WSW,248,5.4,6.9,10,0.00,,,0.00,WUHU216HW,2013-04-20 04:33:00,
2013-04-19 21:37:00,56.2,0.4,29.97,West,270,4.7,6.7,10,0.00,,,0.00,WUHU216HW,2013-04-20 04:37:00,
2013-04-19 21:38:00,56.2,0.4,29.97,WSW,248,4.7,6.7,10,0.00,,,0.00,WUHU216HW,2013-04-20 04:38:00,
2013-04-19 21:42:00,56.0,0.2,29.97,WSW,248,6.9,7.6,10,0.00,,,0.00,WUHU216HW,2013-04-20 04:42:00,
2013-04-19 21:43:00,56.0,0.2,29.97,WSW,248,4.3,7.6,10,0.00,,,0.00,WUHU216HW,2013-04-20 04:43:00,
2013-04-19 21:44:00,56.0,0.2,29.97,WSW,248,4.5,7.6,10,0.00,,,0.00,WUHU216HW,2013-04-20 04:44:00,
2013-04-19 21:47:00,55.8,0.1,29.96,West,270,4.7,7.6,10,0.00,,,0.00,WUHU216HW,2013-04-20 04:47:00,
2013-04-19 21:48:00,55.6,-0.1,29.96,West,270,4.3,7.6,10,0.00,,,0.00,WUHU216HW,2013-04-20 04:48:00,
2013-04-19 21:49:00,55.6,-0.1,29.96,WSW,248,3.6,7.6,10,0.00,,,0.00,WUHU216HW,2013-04-20 04:49:00,
2013-04-19 21:52:00,55.4,-0.2,29.96,West,270,4.7,6.9,10,0.00,,,0.00,WUHU216HW,2013-04-20 04:52:00,
2013-04-19 21:53:00,55.3,-0.4,29.96,WSW,248,5.1,5.4,10,0.00,,,0.00,WUHU216HW,2013-04-20 04:53:00,
2013-04-19 21:54:00,55.1,-0.4,29.96,WSW,248,4.9,5.4,10,0.00,,,0.00,WUHU216HW,2013-04-20 04:54:00,
2013-04-19 21:57:00,54.9,-0.6,29.96,WSW,248,3.8,6.0,10,0.00,,,0.00,WUHU216HW,2013-04-20 04:57:00,
2013-04-19 21:59:00,54.7,-0.7,29.96,WSW,248,3.4,6.0,10,0.00,,,0.00,WUHU216HW,2013-04-20 04:59:00,
2013-04-19 22:02:00,54.5,-0.9,29.96,WSW,248,3.8,6.0,10,0.00,,,0.00,WUHU216HW,2013-04-20 05:02:00,
2013-04-19 22:03:00,54.5,-0.9,29.96,WSW,248,4.0,6.0,10,0.00,,,0.00,WUHU216HW,2013-04-20 05:03:00,
2013-04-19 22:04:00,54.4,-1.1,29.96,SSW,203,4.0,5.4,10,0.00,,,0.00,WUHU216HW,2013-04-20 05:04:00,
2013-04-19 22:08:00,54.4,-1.1,29.96,WSW,248,4.3,5.1,10,0.00,,,0.00,WUHU216HW,2013-04-20 05:08:00,
2013-04-19 22:09:00,54.4,-1.1,29.96,WSW,248,4.9,5.1,10,0.00,,,0.00,WUHU216HW,2013-04-20 05:09:00,
2013-04-19 22:10:00,54.4,-1.1,29.96,WSW,248,4.3,5.1,10,0.00,,,0.00,WUHU216HW,2013-04-20 05:10:00,
2013-04-19 22:13:00,54.0,-1.3,29.95,WSW,248,4.5,5.4,10,0.00,,,0.00,WUHU216HW,2013-04-20 05:13:00,
2013-04-19 22:14:00,54.0,-1.3,29.95,WSW,248,5.4,5.4,10,0.00,,,0.00,WUHU216HW,2013-04-20 05:14:00,
2013-04-19 22:15:00,54.0,-1.3,29.95,WSW,248,4.9,5.6,10,0.00,,,0.00,WUHU216HW,2013-04-20 05:15:00,
2013-04-19 22:18:00,54.0,-1.3,29.95,WSW,248,3.8,5.6,10,0.00,,,0.00,WUHU216HW,2013-04-20 05:18:00,
2013-04-19 22:19:00,54.0,-1.3,29.95,WSW,248,3.8,5.6,10,0.00,,,0.00,WUHU216HW,2013-04-20 05:19:00,
2013-04-19 22:20:00,54.0,-1.3,29.95,WSW,248,3.8,5.6,10,0.00,,,0.00,WUHU216HW,2013-04-20 05:20:00,
2013-04-19 22:23:00,54.0,-1.3,29.95,SW,225,3.4,5.6,10,0.00,,,0.00,WUHU216HW,2013-04-20 05:23:00,
2013-04-19 22:24:00,54.0,-1.3,29.95,SW,225,4.0,5.6,10,0.00,,,0.00,WUHU216HW,2013-04-20 05:24:00,
2013-04-19 22:25:00,54.0,-1.3,29.95,SW,225,4.0,5.4,10,0.00,,,0.00,WUHU216HW,2013-04-20 05:25:00,
2013-04-19 22:26:00,54.0,-1.3,29.95,WSW,248,3.6,5.4,10,0.00,,,0.00,WUHU216HW,2013-04-20 05:26:00,
2013-04-19 22:28:00,54.2,0.4,29.95,SSW,203,2.7,5.4,11,0.00,,,0.00,WUHU216HW,2013-04-20 05:28:00,
2013-04-19 22:29:00,54.0,-1.3,29.95,SW,225,2.7,4.7,10,0.00,,,0.00,WUHU216HW,2013-04-20 05:29:00,
2013-04-19 22:30:00,54.2,-1.2,29.95,SW,225,2.7,4.7,10,0.00,,,0.00,WUHU216HW,2013-04-20 05:30:00,
2013-04-19 22:31:00,54.0,-1.3,29.95,SW,225,2.9,4.7,10,0.00,,,0.00,WUHU216HW,2013-04-20 05:31:00,
2013-04-19 22:33:00,54.0,0.2,29.95,SW,225,4.0,4.3,11,0.00,,,0.00,WUHU216HW,2013-04-20 05:33:00,
2013-04-19 22:34:00,54.0,0.2,29.95,WSW,248,3.6,4.0,11,0.00,,,0.00,WUHU216HW,2013-04-20 05:34:00,
2013-04-19 22:35:00,54.0,0.2,29.95,WSW,248,3.4,4.0,11,0.00,,,0.00,WUHU216HW,2013-04-20 05:35:00,
2013-04-19 22:36:00,54.0,0.2,29.95,SW,225,4.5,4.7,11,0.00,,,0.00,WUHU216HW,2013-04-20 05:36:00,
2013-04-19 22:38:00,53.8,0.0,29.95,SW,225,5.8,5.8,11,0.00,,,0.00,WUHU216HW,2013-04-20 05:38:00,
2013-04-19 22:39:00,53.8,0.0,29.95,SW,225,4.0,5.8,11,0.00,,,0.00,WUHU216HW,2013-04-20 05:39:00,
2013-04-19 22:40:00,53.8,0.0,29.95,WSW,248,3.4,5.8,11,0.00,,,0.00,WUHU216HW,2013-04-20 05:40:00,
2013-04-19 22:42:00,53.6,-0.1,29.95,WSW,248,3.4,5.8,11,0.00,,,0.00,WUHU216HW,2013-04-20 05:42:00,
2013-04-19 22:43:00,53.6,-0.1,29.95,SW,225,4.5,5.8,11,0.00,,,0.00,WUHU216HW,2013-04-20 05:43:00,
2013-04-19 22:45:00,53.6,-0.1,29.95,SW,225,3.6,5.8,11,0.00,,,0.00,WUHU216HW,2013-04-20 05:45:00,
2013-04-19 22:46:00,53.6,-0.1,29.95,WSW,248,3.1,5.8,11,0.00,,,0.00,WUHU216HW,2013-04-20 05:46:00,
2013-04-19 22:47:00,53.6,-0.1,29.95,SW,225,3.8,5.8,11,0.00,,,0.00,WUHU216HW,2013-04-20 05:47:00,
2013-04-19 22:49:00,53.5,-0.3,29.95,WSW,248,3.1,4.9,11,0.00,,,0.00,WUHU216HW,2013-04-20 05:49:00,
2013-04-19 22:50:00,53.5,-0.3,29.95,SSW,203,3.4,4.9,11,0.00,,,0.00,WUHU216HW,2013-04-20 05:50:00,
2013-04-19 22:51:00,53.5,-0.3,29.95,WSW,248,3.8,4.9,11,0.00,,,0.00,WUHU216HW,2013-04-20 05:51:00,
2013-04-19 22:52:00,53.3,-0.3,29.96,WSW,248,4.5,4.9,11,0.00,,,0.00,WUHU216HW,2013-04-20 05:52:00,
2013-04-19 22:54:00,53.3,-0.3,29.96,WSW,248,4.7,5.1,11,0.00,,,0.00,WUHU216HW,2013-04-20 05:54:00,
2013-04-19 22:55:00,53.3,-0.3,29.96,WSW,248,4.5,5.1,11,0.00,,,0.00,WUHU216HW,2013-04-20 05:55:00,
2013-04-19 22:56:00,53.1,-0.5,29.95,SW,225,3.4,5.1,11,0.00,,,0.00,WUHU216HW,2013-04-20 05:56:00,
2013-04-19 22:57:00,53.1,-0.5,29.95,SW,225,3.6,5.1,11,0.00,,,0.00,WUHU216HW,2013-04-20 05:57:00,
2013-04-19 22:59:00,53.1,-0.5,29.95,SW,225,2.7,5.1,11,0.00,,,0.00,WUHU216HW,2013-04-20 05:59:00,
2013-04-19 23:00:00,52.9,-0.7,29.96,SW,225,3.4,5.1,11,0.00,,,0.00,WUHU216HW,2013-04-20 06:00:00,
2013-04-19 23:02:00,52.9,-0.7,29.96,SW,225,3.4,5.1,11,0.00,,,0.00,WUHU216HW,2013-04-20 06:02:00,
2013-04-19 23:04:00,52.9,-0.7,29.96,WSW,248,5.1,5.1,11,0.00,,,0.00,WUHU216HW,2013-04-20 06:04:00,
2013-04-19 23:05:00,52.9,-0.7,29.96,SW,225,4.0,5.1,11,0.00,,,0.00,WUHU216HW,2013-04-20 06:05:00,
2013-04-19 23:07:00,52.9,-0.7,29.96,SW,225,3.8,5.1,11,0.00,,,0.00,WUHU216HW,2013-04-20 06:07:00,
2013-04-19 23:09:00,52.9,-0.7,29.96,SW,225,3.4,5.1,11,0.00,,,0.00,WUHU216HW,2013-04-20 06:09:00,
2013-04-19 23:10:00,52.9,-0.7,29.96,WSW,248,3.4,5.1,11,0.00,,,0.00,WUHU216HW,2013-04-20 06:10:00,
2013-04-19 23:11:00,52.9,-0.7,29.96,SW,225,2.9,5.1,11,0.00,,,0.00,WUHU216HW,2013-04-20 06:11:00,
2013-04-19 23:12:00,52.9,-0.7,29.96,SW,225,4.7,5.1,11,0.00,,,0.00,WUHU216HW,2013-04-20 06:12:00,
2013-04-19 23:14:00,52.9,-0.7,29.96,SW,225,4.0,5.1,11,0.00,,,0.00,WUHU216HW,2013-04-20 06:14:00,
2013-04-19 23:15:00,52.9,-0.7,29.96,WSW,248,4.3,4.7,11,0.00,,,0.00,WUHU216HW,2013-04-20 06:15:00,
2013-04-19 23:16:00,52.9,-0.7,29.96,SW,225,3.8,4.7,11,0.00,,,0.00,WUHU216HW,2013-04-20 06:16:00,
2013-04-19 23:17:00,52.9,-0.7,29.96,SW,225,2.5,4.7,11,0.00,,,0.00,WUHU216HW,2013-04-20 06:17:00,
2013-04-19 23:18:00,52.9,-0.7,29.96,SW,225,2.5,4.7,11,0.00,,,0.00,WUHU216HW,2013-04-20 06:18:00,
2013-04-19 23:20:00,52.7,-0.8,29.96,SW,225,2.7,4.7,11,0.00,,,0.00,WUHU216HW,2013-04-20 06:20:00,
2013-04-19 23:22:00,52.7,-0.8,29.97,SW,225,2.9,4.7,11,0.00,,,0.00,WUHU216HW,2013-04-20 06:22:00,
2013-04-19 23:23:00,52.7,-0.8,29.97,WSW,248,1.1,4.5,11,0.00,,,0.00,WUHU216HW,2013-04-20 06:23:00,
2013-04-19 23:25:00,52.6,-1.0,29.97,ESE,113,2.5,4.5,11,0.00,,,0.00,WUHU216HW,2013-04-20 06:25:00,
2013-04-19 23:27:00,52.6,-1.0,29.97,SW,225,1.8,3.8,11,0.00,,,0.00,WUHU216HW,2013-04-20 06:27:00,
2013-04-19 23:28:00,52.4,-1.1,29.97,ENE,68,1.3,3.4,11,0.00,,,0.00,WUHU216HW,2013-04-20 06:28:00,
2013-04-19 23:30:00,52.2,-1.3,29.97,West,270,1.1,3.4,11,0.00,,,0.00,WUHU216HW,2013-04-20 06:30:00,
2013-04-19 23:31:00,52.2,-1.3,29.97,West,270,1.1,3.4,11,0.00,,,0.00,WUHU216HW,2013-04-20 06:31:00,
2013-04-19 23:32:00,52.2,-1.3,29.97,ESE,113,0.2,3.4,11,0.00,,,0.00,WUHU216HW,2013-04-20 06:32:00,
2013-04-19 23:33:00,52.0,-1.4,29.97,NE,45,0.4,2.7,11,0.00,,,0.00,WUHU216HW,2013-04-20 06:33:00,
2013-04-19 23:35:00,51.8,-1.5,29.96,South,180,0.9,2.5,11,0.00,,,0.00,WUHU216HW,2013-04-20 06:35:00,
2013-04-19 23:36:00,51.8,-1.5,29.96,South,180,0.4,2.2,11,0.00,,,0.00,WUHU216HW,2013-04-20 06:36:00,
2013-04-19 23:37:00,51.8,-1.5,29.96,NNE,23,1.1,2.2,11,0.00,,,0.00,WUHU216HW,2013-04-20 06:37:00,
2013-04-19 23:38:00,51.7,-1.7,29.96,NNE,23,0.0,2.2,11,0.00,,,0.00,WUHU216HW,2013-04-20 06:38:00,
2013-04-19 23:39:00,51.5,-1.8,29.96,SSW,203,0.9,1.3,11,0.00,,,0.00,WUHU216HW,2013-04-20 06:39:00,
2013-04-19 23:40:00,51.5,-0.4,29.96,SSW,203,0.0,1.3,12,0.00,,,0.00,WUHU216HW,2013-04-20 06:40:00,
2013-04-19 23:41:00,51.3,-0.4,29.96,SSE,158,0.7,1.3,12,0.00,,,0.00,WUHU216HW,2013-04-20 06:41:00,
2013-04-19 23:42:00,51.1,-0.6,29.96,SSE,158,1.1,1.3,12,0.00,,,0.00,WUHU216HW,2013-04-20 06:42:00,
2013-04-19 23:43:00,51.1,-0.6,29.96,SSW,203,0.0,1.3,12,0.00,,,0.00,WUHU216HW,2013-04-20 06:43:00,
2013-04-19 23:44:00,51.1,-0.6,29.96,SSW,203,0.0,1.3,12,0.00,,,0.00,WUHU216HW,2013-04-20 06:44:00,
2013-04-19 23:45:00,50.9,-0.7,29.96,SSW,203,1.6,1.6,12,0.00,,,0.00,WUHU216HW,2013-04-20 06:45:00,
2013-04-19 23:46:00,50.8,-0.9,29.96,SW,225,0.7,1.6,12,0.00,,,0.00,WUHU216HW,2013-04-20 06:46:00,
2013-04-19 23:47:00,50.6,-1.1,29.96,SW,225,0.9,1.6,12,0.00,,,0.00,WUHU216HW,2013-04-20 06:47:00,
2013-04-19 23:48:00,50.6,-1.1,29.96,WSW,248,0.7,1.6,12,0.00,,,0.00,WUHU216HW,2013-04-20 06:48:00,
2013-04-19 23:49:00,50.4,-1.2,29.96,WSW,248,1.1,1.6,12,0.00,,,0.00,WUHU216HW,2013-04-20 06:49:00,
2013-04-19 23:51:00,50.0,-1.4,29.95,WSW,248,1.6,1.6,12,0.00,,,0.00,WUHU216HW,2013-04-20 06:51:00,
2013-04-19 23:53:00,49.9,-1.6,29.96,WSW,248,0.4,1.8,12,0.00,,,0.00,WUHU216HW,2013-04-20 06:53:00,
2013-04-19 23:55:00,49.7,-1.7,29.95,WSW,248,0.7,1.8,12,0.00,,,0.00,WUHU216HW,2013-04-20 06:55:00,
2013-04-19 23:56:00,49.7,-1.7,29.95,SW,225,0.7,1.8,12,0.00,,,0.00,WUHU216HW,2013-04-20 06:56:00,
2013-04-19 23:57:00,49.7,-1.7,29.95,WSW,248,0.4,1.8,12,0.00,,,0.00,WUHU216HW,2013-04-20 06:57:00,
2013-04-19 23:58:00,49.5,-1.9,29.95,SW,225,0.0,1.8,12,0.00,,,0.00,WUHU216HW,2013-04-20 06:58:00,